Wetterdaten: aktuell Montag, 22.04.2019 04:28
Datum Zeit Temp. Aussen Temp. o. S. +5cm Feuchte Auss Luftdruck Regen Sonnenschein Regendauer Solar Windben Empfang
22.04.2019 04:28 10,1 C 7,8 C 6,7 C 71 % 1010,5 hPa 0,0 l/m 0 min 0 min 0 W/m 0,0 km/h (0 Bft) 100,00 %
22.04.2019 04:26 10,2 C 7,8 C 6,7 C 71 % 1010,5 hPa 0,0 l/m 0 min 0 min 0 W/m 0,0 km/h (0 Bft) 100,00 %
22.04.2019 04:24 10,2 C 7,8 C 6,7 C 71 % 1010,4 hPa 0,0 l/m 0 min 0 min 0 W/m 0,0 km/h (0 Bft) 100,00 %
22.04.2019 04:22 10,3 C 7,8 C 7,2 C 71 % 1010,5 hPa 0,0 l/m 0 min 0 min 0 W/m 0,0 km/h (0 Bft) 100,00 %
22.04.2019 04:20 10,3 C 8,3 C 7,2 C 71 % 1010,4 hPa 0,0 l/m 0 min 0 min 0 W/m 0,0 km/h (0 Bft) 100,00 %
22.04.2019 04:18 10,4 C 7,8 C 7,2 C 71 % 1010,5 hPa 0,0 l/m 0 min 0 min 0 W/m 0,0 km/h (0 Bft) 100,00 %
22.04.2019 04:16 10,4 C 7,8 C 7,2 C 71 % 1010,5 hPa 0,0 l/m 0 min 0 min 0 W/m 0,0 km/h (0 Bft) 100,00 %
22.04.2019 04:14 10,5 C 7,8 C 7,2 C 70 % 1010,5 hPa 0,0 l/m 0 min 0 min 0 W/m 0,0 km/h (0 Bft) 97,83 %
22.04.2019 04:12 10,6 C 7,8 C 7,2 C 70 % 1010,5 hPa 0,0 l/m 0 min 0 min 0 W/m 0,0 km/h (0 Bft) 100,00 %
22.04.2019 04:10 10,7 C 8,3 C 7,2 C 70 % 1010,5 hPa 0,0 l/m 0 min 0 min 0 W/m 0,0 km/h (0 Bft) 97,87 %
22.04.2019 04:08 10,7 C 8,3 C 7,2 C 70 % 1010,6 hPa 0,0 l/m 0 min 0 min 0 W/m 0,0 km/h (0 Bft) 100,00 %
22.04.2019 04:06 10,8 C 8,3 C 7,2 C 70 % 1010,5 hPa 0,0 l/m 0 min 0 min 0 W/m 0,0 km/h (0 Bft) 100,00 %
22.04.2019 04:04 10,8 C 8,3 C 7,2 C 70 % 1010,6 hPa 0,0 l/m 0 min 0 min 0 W/m 0,0 km/h (0 Bft) 100,00 %
22.04.2019 04:02 10,9 C 8,3 C 7,2 C 70 % 1010,6 hPa 0,0 l/m 0 min 0 min 0 W/m 0,0 km/h (0 Bft) 100,00 %
22.04.2019 04:00 10,9 C 8,3 C 7,2 C 70 % 1010,6 hPa 0,0 l/m 0 min 0 min 0 W/m 0,0 km/h (0 Bft) 100,00 %
22.04.2019 03:58 11,0 C 8,3 C 7,2 C 69 % 1010,5 hPa 0,0 l/m 0 min 0 min 0 W/m 0,0 km/h (0 Bft) 100,00 %
22.04.2019 03:56 11,1 C 8,3 C 7,2 C 69 % 1010,7 hPa 0,0 l/m 0 min 0 min 0 W/m 0,0 km/h (0 Bft) 100,00 %
22.04.2019 03:54 11,2 C 8,3 C 7,2 C 69 % 1010,7 hPa 0,0 l/m 0 min 0 min 0 W/m 0,0 km/h (0 Bft) 100,00 %
22.04.2019 03:52 11,2 C 8,3 C 7,8 C 69 % 1010,7 hPa 0,0 l/m 0 min 0 min 0 W/m 0,0 km/h (0 Bft) 100,00 %
22.04.2019 03:50 11,3 C 8,3 C 7,8 C 68 % 1010,8 hPa 0,0 l/m 0 min 0 min 0 W/m 0,0 km/h (0 Bft) 100,00 %
22.04.2019 03:48 11,4 C 8,3 C 7,8 C 68 % 1010,8 hPa 0,0 l/m 0 min 0 min 0 W/m 0,0 km/h (0 Bft) 97,87 %
22.04.2019 03:46 11,5 C 8,3 C 7,8 C 68 % 1010,8 hPa 0,0 l/m 0 min 0 min 0 W/m 0,0 km/h (0 Bft) 100,00 %
22.04.2019 03:44 11,6 C 8,9 C 7,8 C 68 % 1010,8 hPa 0,0 l/m 0 min 0 min 0 W/m 0,0 km/h (0 Bft) 100,00 %
22.04.2019 03:42 11,6 C 8,9 C 7,8 C 68 % 1010,9 hPa 0,0 l/m 0 min 0 min 0 W/m 0,0 km/h (0 Bft) 100,00 %
22.04.2019 03:40 11,7 C 8,9 C 7,8 C 67 % 1010,9 hPa 0,0 l/m 0 min 0 min 0 W/m 0,0 km/h (0 Bft) 100,00 %
22.04.2019 03:38 11,8 C 8,9 C 7,8 C 67 % 1010,9 hPa 0,0 l/m 0 min 0 min 0 W/m 0,0 km/h (0 Bft) 97,14 %
22.04.2019 03:36 11,9 C 8,9 C 7,8 C 67 % 1010,8 hPa 0,0 l/m 0 min 0 min 0 W/m 0,0 km/h (0 Bft) 100,00 %
22.04.2019 03:34 11,9 C 8,9 C 7,8 C 67 % 1010,9 hPa 0,0 l/m 0 min 0 min 0 W/m 0,0 km/h (0 Bft) 100,00 %
22.04.2019 03:32 12,1 C 8,9 C 7,8 C 66 % 1011,0 hPa 0,0 l/m 0 min 0 min 0 W/m 0,0 km/h (0 Bft) 97,87 %
22.04.2019 03:30 12,1 C 8,9 C 7,8 C 66 % 1010,9 hPa 0,0 l/m 0 min 0 min 0 W/m 0,0 km/h (0 Bft) 97,87 %
22.04.2019 03:28 12,2 C 8,9 C 7,8 C 66 % 1011,0 hPa 0,0 l/m 0 min 0 min 0 W/m 0,0 km/h (0 Bft) 100,00 %
22.04.2019 03:26 12,3 C 9,4 C 8,3 C 66 % 1011,0 hPa 0,0 l/m 0 min 0 min 0 W/m 0,0 km/h (0 Bft) 97,83 %
22.04.2019 03:24 12,4 C 9,4 C 8,3 C 65 % 1011,0 hPa 0,0 l/m 0 min 0 min 0 W/m 0,0 km/h (0 Bft) 95,74 %
22.04.2019 03:22 12,5 C 9,4 C 8,3 C 65 % 1011,1 hPa 0,0 l/m 0 min 0 min 0 W/m 0,0 km/h (0 Bft) 97,87 %
22.04.2019 03:20 12,6 C 9,4 C 8,3 C 65 % 1011,1 hPa 0,0 l/m 0 min 0 min 0 W/m 0,0 km/h (0 Bft) 97,87 %
22.04.2019 03:18 12,7 C 9,4 C 8,3 C 65 % 1011,1 hPa 0,0 l/m 0 min 0 min 0 W/m 0,0 km/h (0 Bft) 97,87 %
22.04.2019 03:16 12,8 C 9,4 C 8,3 C 65 % 1011,1 hPa 0,0 l/m 0 min 0 min 0 W/m 0,0 km/h (0 Bft) 97,87 %
22.04.2019 03:14 12,9 C 9,4 C 8,3 C 64 % 1011,2 hPa 0,0 l/m 0 min 0 min 0 W/m 0,0 km/h (0 Bft) 97,83 %
22.04.2019 03:12 12,9 C 10,0 C 8,9 C 64 % 1011,2 hPa 0,0 l/m 0 min 0 min 0 W/m 0,0 km/h (0 Bft) 97,87 %
22.04.2019 03:10 13,1 C 10,0 C 8,9 C 64 % 1011,2 hPa 0,0 l/m 0 min 0 min 0 W/m 0,0 km/h (0 Bft) 97,87 %
22.04.2019 03:08 13,2 C 10,0 C 8,9 C 63 % 1011,2 hPa 0,0 l/m 0 min 0 min 0 W/m 0,0 km/h (0 Bft) 97,14 %
22.04.2019 03:06 13,2 C 10,0 C 8,9 C 63 % 1011,2 hPa 0,0 l/m 0 min 0 min 0 W/m 0,0 km/h (0 Bft) 98,31 %
22.04.2019 03:04 13,3 C 10,0 C 8,9 C 63 % 1011,2 hPa 0,0 l/m 0 min 0 min 0 W/m 0,0 km/h (0 Bft) 95,65 %
22.04.2019 03:02 13,4 C 10,0 C 8,9 C 63 % 1011,2 hPa 0,0 l/m 0 min 0 min 0 W/m 0,0 km/h (0 Bft) 97,87 %
22.04.2019 03:00 13,5 C 10,0 C 8,9 C 62 % 1011,3 hPa 0,0 l/m 0 min 0 min 0 W/m 0,0 km/h (0 Bft) 97,87 %
22.04.2019 02:58 13,6 C 10,6 C 9,4 C 62 % 1011,3 hPa 0,0 l/m 0 min 0 min 0 W/m 0,0 km/h (0 Bft) 95,74 %
22.04.2019 02:56 13,7 C 10,6 C 9,4 C 62 % 1011,3 hPa 0,0 l/m 0 min 0 min 0 W/m 0,0 km/h (0 Bft) 100,00 %
22.04.2019 02:54 13,7 C 10,6 C 9,4 C 61 % 1011,3 hPa 0,0 l/m 0 min 0 min 0 W/m 0,0 km/h (0 Bft) 97,87 %
22.04.2019 02:52 13,8 C 11,1 C 9,4 C 61 % 1011,3 hPa 0,0 l/m 0 min 0 min 0 W/m 0,0 km/h (0 Bft) 97,83 %
22.04.2019 02:50 13,8 C 11,1 C 9,4 C 61 % 1011,4 hPa 0,0 l/m 0 min 0 min 0 W/m 0,0 km/h (0 Bft) 97,87 %
22.04.2019 02:48 13,9 C 11,1 C 9,4 C 61 % 1011,4 hPa 0,0 l/m 0 min 0 min 0 W/m 0,0 km/h (0 Bft) 100,00 %
22.04.2019 02:46 13,9 C 11,7 C 10,0 C 61 % 1011,4 hPa 0,0 l/m 0 min 0 min 0 W/m 0,0 km/h (0 Bft) 100,00 %
22.04.2019 02:44 13,9 C 11,7 C 10,0 C 61 % 1011,5 hPa 0,0 l/m 0 min 0 min 0 W/m 3,2 km/h (1 Bft) 100,00 %
22.04.2019 02:42 13,9 C 12,2 C 10,0 C 60 % 1011,3 hPa 0,0 l/m 0 min 0 min 0 W/m 0,0 km/h (0 Bft) 91,49 %
22.04.2019 02:40 13,9 C 12,2 C 10,0 C 60 % 1011,3 hPa 0,0 l/m 0 min 0 min 0 W/m 0,0 km/h (0 Bft) 100,00 %
22.04.2019 02:38 13,9 C 12,8 C 10,6 C 60 % 1011,3 hPa 0,0 l/m 0 min 0 min 0 W/m 0,0 km/h (0 Bft) 100,00 %
22.04.2019 02:36 13,9 C 12,8 C 10,6 C 60 % 1011,4 hPa 0,0 l/m 0 min 0 min 0 W/m 3,2 km/h (1 Bft) 100,00 %
22.04.2019 02:34 13,8 C 12,8 C 10,6 C 61 % 1011,4 hPa 0,0 l/m 0 min 0 min 0 W/m 0,0 km/h (0 Bft) 97,87 %
22.04.2019 02:32 13,8 C 13,3 C 10,6 C 61 % 1011,4 hPa 0,0 l/m 0 min 0 min 0 W/m 3,2 km/h (1 Bft) 100,00 %
22.04.2019 02:30 13,8 C 13,3 C 11,1 C 61 % 1011,5 hPa 0,0 l/m 0 min 0 min 0 W/m 0,0 km/h (0 Bft) 100,00 %
22.04.2019 02:28 13,7 C 13,9 C 11,1 C 61 % 1011,4 hPa 0,0 l/m 0 min 0 min 0 W/m 0,0 km/h (0 Bft) 97,83 %
22.04.2019 02:26 13,6 C 13,9 C 11,1 C 61 % 1011,4 hPa 0,0 l/m 0 min 0 min 0 W/m 6,4 km/h (2 Bft) 95,74 %
22.04.2019 02:24 13,6 C 13,9 C 11,7 C 61 % 1011,4 hPa 0,0 l/m 0 min 0 min 0 W/m 3,2 km/h (1 Bft) 95,74 %
22.04.2019 02:22 13,5 C 13,9 C 11,7 C 61 % 1011,4 hPa 0,0 l/m 0 min 0 min 0 W/m 6,4 km/h (2 Bft) 97,87 %
22.04.2019 02:20 13,4 C 13,9 C 11,7 C 62 % 1011,5 hPa 0,0 l/m 0 min 0 min 0 W/m 6,4 km/h (2 Bft) 100,00 %
22.04.2019 02:18 13,3 C 13,9 C 11,7 C 62 % 1011,5 hPa 0,0 l/m 0 min 0 min 0 W/m 6,4 km/h (2 Bft) 95,74 %
22.04.2019 02:16 13,2 C 14,4 C 11,7 C 63 % 1011,5 hPa 0,0 l/m 0 min 0 min 0 W/m 3,2 km/h (1 Bft) 97,83 %
22.04.2019 02:14 13,1 C 14,4 C 11,7 C 63 % 1011,5 hPa 0,0 l/m 0 min 0 min 0 W/m 3,2 km/h (1 Bft) 97,87 %
22.04.2019 02:12 13,0 C 14,4 C 12,2 C 63 % 1011,5 hPa 0,0 l/m 0 min 0 min 0 W/m 3,2 km/h (1 Bft) 97,87 %
22.04.2019 02:10 12,9 C 14,4 C 12,2 C 63 % 1011,6 hPa 0,0 l/m 0 min 0 min 0 W/m 3,2 km/h (1 Bft) 97,87 %
22.04.2019 02:08 12,8 C 14,4 C 12,2 C 64 % 1011,6 hPa 0,0 l/m 0 min 0 min 0 W/m 3,2 km/h (1 Bft) 97,14 %
22.04.2019 02:06 12,6 C 14,4 C 12,8 C 65 % 1011,6 hPa 0,0 l/m 0 min 0 min 0 W/m 3,2 km/h (1 Bft) 96,61 %
22.04.2019 02:04 12,5 C 14,4 C 12,8 C 65 % 1011,7 hPa 0,0 l/m 0 min 0 min 0 W/m 6,4 km/h (2 Bft) 97,83 %
22.04.2019 02:02 12,3 C 15,0 C 12,8 C 65 % 1011,7 hPa 0,0 l/m 0 min 0 min 0 W/m 9,7 km/h (2 Bft) 97,87 %
22.04.2019 02:00 12,2 C 15,0 C 12,8 C 66 % 1011,7 hPa 0,0 l/m 0 min 0 min 0 W/m 6,4 km/h (2 Bft) 95,74 %
22.04.2019 01:58 12,1 C 15,0 C 12,8 C 66 % 1011,7 hPa 0,0 l/m 0 min 0 min 0 W/m 16,1 km/h (3 Bft) 95,74 %
22.04.2019 01:56 11,9 C 14,4 C 12,2 C 67 % 1011,6 hPa 0,0 l/m 0 min 0 min 0 W/m 12,9 km/h (3 Bft) 97,87 %
22.04.2019 01:54 11,8 C 13,9 C 11,1 C 68 % 1011,7 hPa 0,0 l/m 0 min 0 min 0 W/m 16,1 km/h (3 Bft) 97,83 %
22.04.2019 01:52 11,7 C 12,8 C 10,0 C 68 % 1011,8 hPa 0,0 l/m 0 min 0 min 0 W/m 12,9 km/h (3 Bft) 95,74 %
22.04.2019 01:50 11,7 C 11,7 C 9,4 C 69 % 1011,8 hPa 0,0 l/m 0 min 0 min 0 W/m 9,7 km/h (2 Bft) 97,87 %
22.04.2019 01:48 11,7 C 10,6 C 9,4 C 68 % 1011,8 hPa 0,0 l/m 0 min 0 min 0 W/m 6,4 km/h (2 Bft) 95,74 %
22.04.2019 01:46 11,7 C 10,6 C 8,9 C 68 % 1011,8 hPa 0,0 l/m 0 min 0 min 0 W/m 3,2 km/h (1 Bft) 95,74 %
22.04.2019 01:44 11,7 C 10,0 C 8,9 C 68 % 1011,8 hPa 0,0 l/m 0 min 0 min 0 W/m 3,2 km/h (1 Bft) 97,87 %
22.04.2019 01:42 11,8 C 10,0 C 8,9 C 68 % 1011,8 hPa 0,0 l/m 0 min 0 min 0 W/m 3,2 km/h (1 Bft) 95,65 %
22.04.2019 01:40 11,8 C 10,0 C 9,4 C 68 % 1011,9 hPa 0,0 l/m 0 min 0 min 0 W/m 3,2 km/h (1 Bft) 100,00 %
22.04.2019 01:38 11,8 C 10,0 C 8,9 C 68 % 1011,9 hPa 0,0 l/m 0 min 0 min 0 W/m 3,2 km/h (1 Bft) 95,65 %
22.04.2019 01:36 11,9 C 10,0 C 9,4 C 67 % 1011,9 hPa 0,0 l/m 0 min 0 min 0 W/m 3,2 km/h (1 Bft) 94,92 %
22.04.2019 01:34 11,9 C 10,0 C 8,9 C 67 % 1011,9 hPa 0,0 l/m 0 min 0 min 0 W/m 0,0 km/h (0 Bft) 97,87 %
22.04.2019 01:32 11,9 C 10,0 C 8,9 C 67 % 1011,9 hPa 0,0 l/m 0 min 0 min 0 W/m 0,0 km/h (0 Bft) 97,87 %
22.04.2019 01:30 11,9 C 10,0 C 8,9 C 67 % 1011,9 hPa 0,0 l/m 0 min 0 min 0 W/m 3,2 km/h (1 Bft) 95,65 %
22.04.2019 01:28 12,0 C 10,0 C 8,9 C 67 % 1011,9 hPa 0,0 l/m 0 min 0 min 0 W/m 3,2 km/h (1 Bft) 95,74 %
22.04.2019 01:26 12,0 C 10,6 C 8,9 C 67 % 1011,9 hPa 0,0 l/m 0 min 0 min 0 W/m 0,0 km/h (0 Bft) 95,74 %
22.04.2019 01:24 12,0 C 10,6 C 8,9 C 67 % 1012,0 hPa 0,0 l/m 0 min 0 min 0 W/m 0,0 km/h (0 Bft) 95,74 %
22.04.2019 01:22 12,0 C 10,6 C 8,9 C 67 % 1012,0 hPa 0,0 l/m 0 min 0 min 0 W/m 0,0 km/h (0 Bft) 95,74 %
22.04.2019 01:20 12,1 C 10,6 C 9,4 C 67 % 1011,9 hPa 0,0 l/m 0 min 0 min 0 W/m 0,0 km/h (0 Bft) 93,62 %
22.04.2019 01:18 12,1 C 10,6 C 9,4 C 67 % 1011,9 hPa 0,0 l/m 0 min 0 min 0 W/m 0,0 km/h (0 Bft) 95,65 %
22.04.2019 01:16 12,1 C 10,6 C 9,4 C 67 % 1012,0 hPa 0,0 l/m 0 min 0 min 0 W/m 0,0 km/h (0 Bft) 93,62 %
22.04.2019 01:14 12,1 C 10,6 C 9,4 C 67 % 1012,0 hPa 0,0 l/m 0 min 0 min 0 W/m 0,0 km/h (0 Bft) 95,74 %
22.04.2019 01:12 12,1 C 11,1 C 9,4 C 67 % 1012,0 hPa 0,0 l/m 0 min 0 min 0 W/m 0,0 km/h (0 Bft) 95,74 %
22.04.2019 01:10 12,1 C 11,1 C 9,4 C 66 % 1012,0 hPa 0,0 l/m 0 min 0 min 0 W/m 3,2 km/h (1 Bft) 95,74 %
22.04.2019 01:08 12,2 C 11,1 C 9,4 C 66 % 1012,1 hPa 0,0 l/m 0 min 0 min 0 W/m 3,2 km/h (1 Bft) 94,29 %
22.04.2019 01:06 12,2 C 11,1 C 9,4 C 66 % 1012,1 hPa 0,0 l/m 0 min 0 min 0 W/m 0,0 km/h (0 Bft) 96,55 %
22.04.2019 01:04 12,2 C 11,1 C 9,4 C 66 % 1012,1 hPa 0,0 l/m 0 min 0 min 0 W/m 0,0 km/h (0 Bft) 95,74 %
22.04.2019 01:02 12,2 C 11,1 C 9,4 C 66 % 1012,0 hPa 0,0 l/m 0 min 0 min 0 W/m 0,0 km/h (0 Bft) 95,74 %
22.04.2019 01:00 12,2 C 11,1 C 9,4 C 66 % 1012,0 hPa 0,0 l/m 0 min 0 min 0 W/m 0,0 km/h (0 Bft) 93,62 %
22.04.2019 00:58 12,3 C 11,1 C 9,4 C 66 % 1012,0 hPa 0,0 l/m 0 min 0 min 0 W/m 0,0 km/h (0 Bft) 97,87 %
22.04.2019 00:56 12,3 C 11,1 C 9,4 C 66 % 1012,0 hPa 0,0 l/m 0 min 0 min 0 W/m 0,0 km/h (0 Bft) 95,74 %
22.04.2019 00:54 12,4 C 11,1 C 9,4 C 66 % 1012,0 hPa 0,0 l/m 0 min 0 min 0 W/m 0,0 km/h (0 Bft) 95,65 %
22.04.2019 00:52 12,4 C 11,1 C 9,4 C 65 % 1012,0 hPa 0,0 l/m 0 min 0 min 0 W/m 0,0 km/h (0 Bft) 95,74 %
22.04.2019 00:50 12,4 C 11,1 C 9,4 C 65 % 1012,0 hPa 0,0 l/m 0 min 0 min 0 W/m 0,0 km/h (0 Bft) 95,74 %
22.04.2019 00:48 12,4 C 11,1 C 9,4 C 65 % 1012,0 hPa 0,0 l/m 0 min 0 min 0 W/m 0,0 km/h (0 Bft) 95,74 %
22.04.2019 00:46 12,5 C 11,1 C 9,4 C 65 % 1012,1 hPa 0,0 l/m 0 min 0 min 0 W/m 0,0 km/h (0 Bft) 97,87 %
22.04.2019 00:44 12,6 C 11,1 C 9,4 C 65 % 1012,1 hPa 0,0 l/m 0 min 0 min 0 W/m 0,0 km/h (0 Bft) 95,65 %
22.04.2019 00:42 12,6 C 11,1 C 9,4 C 65 % 1012,1 hPa 0,0 l/m 0 min 0 min 0 W/m 0,0 km/h (0 Bft) 97,87 %
22.04.2019 00:40 12,7 C 10,6 C 9,4 C 65 % 1012,1 hPa 0,0 l/m 0 min 0 min 0 W/m 0,0 km/h (0 Bft) 95,74 %
22.04.2019 00:38 12,7 C 10,6 C 9,4 C 65 % 1012,1 hPa 0,0 l/m 0 min 0 min 0 W/m 0,0 km/h (0 Bft) 97,14 %
22.04.2019 00:36 12,8 C 10,6 C 9,4 C 65 % 1012,1 hPa 0,0 l/m 0 min 0 min 0 W/m 0,0 km/h (0 Bft) 96,61 %
22.04.2019 00:34 12,8 C 10,6 C 9,4 C 64 % 1012,1 hPa 0,0 l/m 0 min 0 min 0 W/m 0,0 km/h (0 Bft) 97,87 %
22.04.2019 00:32 12,8 C 10,6 C 9,4 C 64 % 1012,1 hPa 0,0 l/m 0 min 0 min 0 W/m 0,0 km/h (0 Bft) 97,83 %
22.04.2019 00:30 12,9 C 10,6 C 9,4 C 64 % 1012,1 hPa 0,0 l/m 0 min 0 min 0 W/m 0,0 km/h (0 Bft) 97,87 %
22.04.2019 00:28 12,9 C 10,6 C 9,4 C 64 % 1012,1 hPa 0,0 l/m 0 min 0 min 0 W/m 0,0 km/h (0 Bft) 97,87 %
22.04.2019 00:26 13,0 C 10,6 C 10,0 C 64 % 1012,1 hPa 0,0 l/m 0 min 0 min 0 W/m 0,0 km/h (0 Bft) 97,87 %
22.04.2019 00:24 13,1 C 10,6 C 10,0 C 64 % 1012,1 hPa 0,0 l/m 0 min 0 min 0 W/m 0,0 km/h (0 Bft) 97,87 %
22.04.2019 00:22 13,1 C 10,6 C 10,0 C 64 % 1012,1 hPa 0,0 l/m 0 min 0 min 0 W/m 0,0 km/h (0 Bft) 97,92 %
22.04.2019 00:20 13,2 C 10,6 C 10,0 C 64 % 1012,2 hPa 0,0 l/m 0 min 0 min 0 W/m 0,0 km/h (0 Bft) 97,87 %
22.04.2019 00:18 13,2 C 10,6 C 10,0 C 64 % 1012,2 hPa 0,0 l/m 0 min 0 min 0 W/m 0,0 km/h (0 Bft) 100,00 %
22.04.2019 00:16 13,3 C 10,6 C 10,0 C 63 % 1012,1 hPa 0,0 l/m 0 min 0 min 0 W/m 0,0 km/h (0 Bft) 100,00 %
22.04.2019 00:14 13,3 C 11,1 C 10,0 C 63 % 1012,1 hPa 0,0 l/m 0 min 0 min 0 W/m 0,0 km/h (0 Bft) 95,74 %
22.04.2019 00:12 13,4 C 11,1 C 10,0 C 63 % 1012,1 hPa 0,0 l/m 0 min 0 min 0 W/m 0,0 km/h (0 Bft) 97,87 %
22.04.2019 00:10 13,4 C 11,1 C 10,0 C 63 % 1012,1 hPa 0,0 l/m 0 min 0 min 0 W/m 0,0 km/h (0 Bft) 100,00 %
22.04.2019 00:08 13,4 C 11,1 C 10,0 C 63 % 1012,2 hPa 0,0 l/m 0 min 0 min 0 W/m 0,0 km/h (0 Bft) 100,00 %
22.04.2019 00:07 13,5 C 11,1 C 10,0 C 63 % 1012,2 hPa 0,0 l/m 0 min 0 min 0 W/m 0,0 km/h (0 Bft) 100,00 %
22.04.2019 00:04 13,6 C 11,1 C 10,0 C 62 % 1012,2 hPa 0,0 l/m 0 min 0 min 0 W/m 0,0 km/h (0 Bft) 100,00 %
22.04.2019 00:02 13,6 C 11,7 C 10,0 C 62 % 1012,2 hPa 0,0 l/m 0 min 0 min 0 W/m 0,0 km/h (0 Bft) 100,00 %
22.04.2019 00:00 13,7 C 11,7 C 10,0 C 62 % 1012,2 hPa 0,0 l/m 0 min 0 min 0 W/m 0,0 km/h (0 Bft) 100,00 %
21.04.2019 23:58 13,7 C 11,7 C 10,0 C 62 % 1012,2 hPa 0,0 l/m 0 min 0 min 0 W/m 0,0 km/h (0 Bft) 100,00 %
21.04.2019 23:56 13,8 C 11,7 C 10,0 C 62 % 1012,2 hPa 0,0 l/m 0 min 0 min 0 W/m 0,0 km/h (0 Bft) 100,00 %
21.04.2019 23:54 13,8 C 11,7 C 10,0 C 62 % 1012,2 hPa 0,0 l/m 0 min 0 min 0 W/m 0,0 km/h (0 Bft) 95,65 %
21.04.2019 23:52 13,9 C 11,1 C 10,0 C 62 % 1012,2 hPa 0,0 l/m 0 min 0 min 0 W/m 0,0 km/h (0 Bft) 100,00 %
21.04.2019 23:50 14,0 C 11,7 C 10,0 C 62 % 1012,3 hPa 0,0 l/m 0 min 0 min 0 W/m 0,0 km/h (0 Bft) 100,00 %
21.04.2019 23:48 14,1 C 11,7 C 10,0 C 62 % 1012,3 hPa 0,0 l/m 0 min 0 min 0 W/m 0,0 km/h (0 Bft) 97,87 %
21.04.2019 23:46 14,2 C 11,7 C 10,6 C 61 % 1012,3 hPa 0,0 l/m 0 min 0 min 0 W/m 0,0 km/h (0 Bft) 97,87 %
21.04.2019 23:44 14,2 C 11,7 C 10,6 C 61 % 1012,3 hPa 0,0 l/m 0 min 0 min 0 W/m 0,0 km/h (0 Bft) 97,87 %
21.04.2019 23:42 14,2 C 11,7 C 10,6 C 61 % 1012,3 hPa 0,0 l/m 0 min 0 min 0 W/m 0,0 km/h (0 Bft) 97,83 %
21.04.2019 23:40 14,3 C 11,7 C 10,6 C 60 % 1012,3 hPa 0,0 l/m 0 min 0 min 0 W/m 0,0 km/h (0 Bft) 97,87 %
21.04.2019 23:38 14,3 C 11,7 C 10,6 C 61 % 1012,4 hPa 0,0 l/m 0 min 0 min 0 W/m 0,0 km/h (0 Bft) 97,87 %
21.04.2019 23:36 14,4 C 12,2 C 10,6 C 60 % 1012,4 hPa 0,0 l/m 0 min 0 min 0 W/m 0,0 km/h (0 Bft) 97,87 %
21.04.2019 23:34 14,4 C 12,2 C 10,6 C 60 % 1012,4 hPa 0,0 l/m 0 min 0 min 0 W/m 0,0 km/h (0 Bft) 95,74 %
21.04.2019 23:32 14,6 C 12,2 C 10,6 C 60 % 1012,4 hPa 0,0 l/m 0 min 0 min 0 W/m 0,0 km/h (0 Bft) 97,87 %
21.04.2019 23:30 14,6 C 12,2 C 10,6 C 60 % 1012,4 hPa 0,0 l/m 0 min 0 min 0 W/m 0,0 km/h (0 Bft) 97,83 %
21.04.2019 23:28 14,7 C 12,2 C 10,6 C 60 % 1012,4 hPa 0,0 l/m 0 min 0 min 0 W/m 0,0 km/h (0 Bft) 95,74 %
21.04.2019 23:26 14,7 C 12,2 C 10,6 C 60 % 1012,4 hPa 0,0 l/m 0 min 0 min 0 W/m 0,0 km/h (0 Bft) 93,62 %
21.04.2019 23:24 14,8 C 12,2 C 10,6 C 60 % 1012,4 hPa 0,0 l/m 0 min 0 min 0 W/m 0,0 km/h (0 Bft) 97,87 %
21.04.2019 23:22 14,9 C 12,2 C 11,1 C 60 % 1012,4 hPa 0,0 l/m 0 min 0 min 0 W/m 0,0 km/h (0 Bft) 95,74 %
21.04.2019 23:20 14,9 C 12,2 C 11,1 C 59 % 1012,4 hPa 0,0 l/m 0 min 0 min 0 W/m 0,0 km/h (0 Bft) 97,87 %
21.04.2019 23:18 15,0 C 12,2 C 11,1 C 59 % 1012,5 hPa 0,0 l/m 0 min 0 min 0 W/m 0,0 km/h (0 Bft) 97,83 %
21.04.2019 23:16 15,1 C 12,2 C 11,1 C 59 % 1012,5 hPa 0,0 l/m 0 min 0 min 0 W/m 0,0 km/h (0 Bft) 97,87 %
21.04.2019 23:14 15,2 C 12,2 C 11,1 C 59 % 1012,5 hPa 0,0 l/m 0 min 0 min 0 W/m 0,0 km/h (0 Bft) 100,00 %
21.04.2019 23:12 15,3 C 12,2 C 11,1 C 59 % 1012,5 hPa 0,0 l/m 0 min 0 min 0 W/m 0,0 km/h (0 Bft) 95,92 %
21.04.2019 23:10 15,3 C 12,2 C 11,1 C 59 % 1012,5 hPa 0,0 l/m 0 min 0 min 0 W/m 0,0 km/h (0 Bft) 91,49 %
21.04.2019 23:08 15,4 C 12,2 C 11,1 C 59 % 1012,5 hPa 0,0 l/m 0 min 0 min 0 W/m 0,0 km/h (0 Bft) 97,83 %
21.04.2019 23:06 15,5 C 12,2 C 11,1 C 59 % 1012,5 hPa 0,0 l/m 0 min 0 min 0 W/m 0,0 km/h (0 Bft) 97,87 %
21.04.2019 23:04 15,6 C 12,2 C 11,1 C 58 % 1012,5 hPa 0,0 l/m 0 min 0 min 0 W/m 0,0 km/h (0 Bft) 97,87 %
21.04.2019 23:02 15,7 C 12,8 C 11,1 C 58 % 1012,6 hPa 0,0 l/m 0 min 0 min 0 W/m 0,0 km/h (0 Bft) 94,00 %
21.04.2019 23:00 15,8 C 12,8 C 11,7 C 58 % 1012,7 hPa 0,0 l/m 0 min 0 min 0 W/m 0,0 km/h (0 Bft) 95,74 %
21.04.2019 22:58 15,8 C 12,8 C 11,7 C 58 % 1012,6 hPa 0,0 l/m 0 min 0 min 0 W/m 0,0 km/h (0 Bft) 97,96 %
21.04.2019 22:56 15,9 C 12,8 C 11,7 C 57 % 1012,7 hPa 0,0 l/m 0 min 0 min 0 W/m 0,0 km/h (0 Bft) 97,62 %
21.04.2019 22:54 16,0 C 12,8 C 11,7 C 56 % 1012,7 hPa 0,0 l/m 0 min 0 min 0 W/m 0,0 km/h (0 Bft) 97,83 %
21.04.2019 22:52 16,1 C 12,8 C 11,7 C 56 % 1012,6 hPa 0,0 l/m 0 min 0 min 0 W/m 0,0 km/h (0 Bft) 95,83 %
21.04.2019 22:50 16,2 C 13,3 C 11,7 C 56 % 1012,7 hPa 0,0 l/m 0 min 0 min 0 W/m 0,0 km/h (0 Bft) 97,96 %
21.04.2019 22:48 16,2 C 13,3 C 12,2 C 55 % 1012,7 hPa 0,0 l/m 0 min 0 min 0 W/m 0,0 km/h (0 Bft) 97,96 %
21.04.2019 22:46 16,3 C 13,3 C 12,2 C 55 % 1012,7 hPa 0,0 l/m 0 min 0 min 0 W/m 0,0 km/h (0 Bft) 97,62 %
21.04.2019 22:44 16,3 C 13,9 C 12,2 C 55 % 1012,7 hPa 0,0 l/m 0 min 0 min 0 W/m 0,0 km/h (0 Bft) 97,87 %
21.04.2019 22:42 16,4 C 13,9 C 12,2 C 55 % 1012,7 hPa 0,0 l/m 0 min 0 min 0 W/m 0,0 km/h (0 Bft) 97,83 %
21.04.2019 22:40 16,4 C 13,9 C 12,2 C 54 % 1012,7 hPa 0,0 l/m 0 min 0 min 0 W/m 0,0 km/h (0 Bft) 97,87 %
21.04.2019 22:38 16,5 C 14,4 C 12,2 C 54 % 1012,7 hPa 0,0 l/m 0 min 0 min 0 W/m 0,0 km/h (0 Bft) 98,08 %
21.04.2019 22:36 16,6 C 14,4 C 12,8 C 53 % 1012,7 hPa 0,0 l/m 0 min 0 min 0 W/m 0,0 km/h (0 Bft) 93,88 %
21.04.2019 22:34 16,6 C 14,4 C 12,8 C 53 % 1012,7 hPa 0,0 l/m 0 min 0 min 0 W/m 0,0 km/h (0 Bft) 97,92 %
21.04.2019 22:32 16,7 C 14,4 C 12,8 C 53 % 1012,7 hPa 0,0 l/m 0 min 0 min 0 W/m 0,0 km/h (0 Bft) 97,56 %
21.04.2019 22:30 16,7 C 14,4 C 12,8 C 53 % 1012,7 hPa 0,0 l/m 0 min 0 min 0 W/m 0,0 km/h (0 Bft) 97,87 %
21.04.2019 22:28 16,7 C 15,0 C 12,8 C 53 % 1012,7 hPa 0,0 l/m 0 min 0 min 0 W/m 0,0 km/h (0 Bft) 81,25 %
21.04.2019 22:26 16,8 C 15,0 C 12,8 C 53 % 1012,7 hPa 0,0 l/m 0 min 0 min 0 W/m 0,0 km/h (0 Bft) 93,88 %
21.04.2019 22:24 16,8 C 15,0 C 12,8 C 53 % 1012,8 hPa 0,0 l/m 0 min 0 min 0 W/m 0,0 km/h (0 Bft) 95,83 %
21.04.2019 22:22 16,9 C 15,0 C 12,8 C 52 % 1012,8 hPa 0,0 l/m 0 min 0 min 0 W/m 0,0 km/h (0 Bft) 97,67 %
21.04.2019 22:20 16,9 C 15,0 C 12,8 C 52 % 1012,8 hPa 0,0 l/m 0 min 0 min 0 W/m 3,2 km/h (1 Bft) 97,83 %
21.04.2019 22:18 17,0 C 15,0 C 12,8 C 52 % 1012,9 hPa 0,0 l/m 0 min 0 min 0 W/m 3,2 km/h (1 Bft) 100,00 %
21.04.2019 22:16 17,1 C 15,0 C 12,8 C 52 % 1012,9 hPa 0,0 l/m 0 min 0 min 0 W/m 0,0 km/h (0 Bft) 100,00 %
21.04.2019 22:14 17,2 C 15,0 C 12,8 C 52 % 1012,9 hPa 0,0 l/m 0 min 0 min 0 W/m 0,0 km/h (0 Bft) 97,96 %
21.04.2019 22:12 17,3 C 14,4 C 12,8 C 52 % 1012,9 hPa 0,0 l/m 0 min 0 min 0 W/m 3,2 km/h (1 Bft) 97,92 %
21.04.2019 22:10 17,3 C 14,4 C 12,8 C 52 % 1012,9 hPa 0,0 l/m 0 min 0 min 0 W/m 3,2 km/h (1 Bft) 100,00 %
21.04.2019 22:08 17,4 C 14,4 C 12,8 C 52 % 1013,0 hPa 0,0 l/m 0 min 0 min 0 W/m 0,0 km/h (0 Bft) 97,83 %
21.04.2019 22:06 17,5 C 14,4 C 12,8 C 52 % 1013,0 hPa 0,0 l/m 0 min 0 min 0 W/m 0,0 km/h (0 Bft) 95,74 %
21.04.2019 22:04 17,6 C 14,4 C 12,8 C 52 % 1013,0 hPa 0,0 l/m 0 min 0 min 0 W/m 0,0 km/h (0 Bft) 100,00 %
21.04.2019 22:02 17,7 C 14,4 C 12,8 C 52 % 1013,0 hPa 0,0 l/m 0 min 0 min 0 W/m 0,0 km/h (0 Bft) 98,00 %
21.04.2019 22:00 17,8 C 14,4 C 12,8 C 51 % 1013,0 hPa 0,0 l/m 0 min 0 min 0 W/m 0,0 km/h (0 Bft) 97,83 %
21.04.2019 21:58 17,8 C 15,0 C 13,3 C 51 % 1013,1 hPa 0,0 l/m 0 min 0 min 0 W/m 0,0 km/h (0 Bft) 98,00 %
21.04.2019 21:56 17,9 C 15,0 C 13,3 C 51 % 1013,1 hPa 0,0 l/m 0 min 0 min 0 W/m 0,0 km/h (0 Bft) 97,56 %
21.04.2019 21:54 18,0 C 15,0 C 13,3 C 51 % 1013,1 hPa 0,0 l/m 0 min 0 min 0 W/m 0,0 km/h (0 Bft) 97,87 %
21.04.2019 21:52 18,1 C 15,0 C 13,3 C 51 % 1013,1 hPa 0,0 l/m 0 min 0 min 0 W/m 0,0 km/h (0 Bft) 97,92 %
21.04.2019 21:50 18,2 C 15,0 C 13,3 C 50 % 1013,1 hPa 0,0 l/m 0 min 0 min 0 W/m 0,0 km/h (0 Bft) 95,92 %
21.04.2019 21:48 18,3 C 15,0 C 13,3 C 50 % 1013,1 hPa 0,0 l/m 0 min 0 min 0 W/m 0,0 km/h (0 Bft) 97,92 %
21.04.2019 21:46 18,4 C 15,0 C 13,9 C 50 % 1013,1 hPa 0,0 l/m 0 min 0 min 0 W/m 0,0 km/h (0 Bft) 97,62 %
21.04.2019 21:44 18,5 C 15,0 C 13,9 C 50 % 1013,2 hPa 0,0 l/m 0 min 0 min 0 W/m 0,0 km/h (0 Bft) 97,87 %
21.04.2019 21:42 18,6 C 15,6 C 13,9 C 50 % 1013,1 hPa 0,0 l/m 0 min 0 min 0 W/m 0,0 km/h (0 Bft) 97,87 %
21.04.2019 21:40 18,7 C 15,6 C 13,9 C 49 % 1013,1 hPa 0,0 l/m 0 min 0 min 0 W/m 0,0 km/h (0 Bft) 97,92 %
21.04.2019 21:38 18,8 C 15,6 C 13,9 C 49 % 1013,1 hPa 0,0 l/m 0 min 0 min 0 W/m 0,0 km/h (0 Bft) 95,92 %
21.04.2019 21:36 18,8 C 15,6 C 13,9 C 49 % 1013,1 hPa 0,0 l/m 0 min 0 min 0 W/m 0,0 km/h (0 Bft) 97,92 %
21.04.2019 21:34 18,9 C 15,6 C 14,4 C 48 % 1013,2 hPa 0,0 l/m 0 min 0 min 0 W/m 0,0 km/h (0 Bft) 97,96 %
21.04.2019 21:32 19,0 C 16,1 C 14,4 C 48 % 1013,2 hPa 0,0 l/m 0 min 0 min 0 W/m 0,0 km/h (0 Bft) 97,56 %
21.04.2019 21:30 19,1 C 16,1 C 14,4 C 48 % 1013,1 hPa 0,0 l/m 0 min 0 min 0 W/m 0,0 km/h (0 Bft) 97,87 %
21.04.2019 21:28 19,2 C 16,1 C 14,4 C 48 % 1013,1 hPa 0,0 l/m 0 min 0 min 0 W/m 0,0 km/h (0 Bft) 95,83 %
21.04.2019 21:26 19,3 C 16,1 C 14,4 C 47 % 1013,2 hPa 0,0 l/m 0 min 0 min 0 W/m 0,0 km/h (0 Bft) 97,92 %
21.04.2019 21:24 19,3 C 16,7 C 15,0 C 46 % 1013,2 hPa 0,0 l/m 0 min 0 min 0 W/m 0,0 km/h (0 Bft) 100,00 %
21.04.2019 21:22 19,4 C 16,7 C 15,0 C 46 % 1013,2 hPa 0,0 l/m 0 min 0 min 0 W/m 0,0 km/h (0 Bft) 100,00 %
21.04.2019 21:20 19,5 C 16,7 C 15,0 C 45 % 1013,2 hPa 0,0 l/m 0 min 0 min 0 W/m 0,0 km/h (0 Bft) 95,74 %
21.04.2019 21:18 19,6 C 16,7 C 15,0 C 45 % 1013,2 hPa 0,0 l/m 0 min 0 min 0 W/m 0,0 km/h (0 Bft) 97,87 %
21.04.2019 21:16 19,6 C 16,7 C 15,0 C 45 % 1013,1 hPa 0,0 l/m 0 min 0 min 0 W/m 0,0 km/h (0 Bft) 97,96 %
21.04.2019 21:14 19,7 C 16,7 C 15,0 C 45 % 1013,2 hPa 0,0 l/m 0 min 0 min 0 W/m 0,0 km/h (0 Bft) 100,00 %
21.04.2019 21:12 19,8 C 17,2 C 15,0 C 45 % 1013,1 hPa 0,0 l/m 0 min 0 min 0 W/m 3,2 km/h (1 Bft) 97,67 %
21.04.2019 21:10 19,8 C 17,2 C 15,6 C 44 % 1013,1 hPa 0,0 l/m 0 min 0 min 0 W/m 3,2 km/h (1 Bft) 95,65 %
21.04.2019 21:08 19,9 C 17,2 C 15,6 C 45 % 1013,0 hPa 0,0 l/m 0 min 0 min 0 W/m 3,2 km/h (1 Bft) 97,22 %
21.04.2019 21:06 19,9 C 17,2 C 15,6 C 44 % 1013,0 hPa 0,0 l/m 0 min 0 min 0 W/m 3,2 km/h (1 Bft) 98,33 %
21.04.2019 21:04 20,0 C 17,2 C 15,6 C 44 % 1013,0 hPa 0,0 l/m 0 min 0 min 0 W/m 0,0 km/h (0 Bft) 97,87 %
21.04.2019 21:02 20,1 C 17,2 C 15,6 C 44 % 1013,0 hPa 0,0 l/m 0 min 0 min 0 W/m 3,2 km/h (1 Bft) 97,96 %
21.04.2019 21:00 20,1 C 17,2 C 16,1 C 44 % 1013,0 hPa 0,0 l/m 0 min 0 min 0 W/m 3,2 km/h (1 Bft) 97,87 %
21.04.2019 20:58 20,2 C 17,8 C 16,1 C 43 % 1013,0 hPa 0,0 l/m 0 min 0 min 0 W/m 0,0 km/h (0 Bft) 97,62 %
21.04.2019 20:56 20,3 C 17,8 C 16,1 C 43 % 1013,0 hPa 0,0 l/m 0 min 0 min 0 W/m 3,2 km/h (1 Bft) 97,87 %
21.04.2019 20:54 20,3 C 17,8 C 16,1 C 43 % 1013,0 hPa 0,0 l/m 0 min 0 min 0 W/m 3,2 km/h (1 Bft) 97,87 %
21.04.2019 20:52 20,4 C 17,8 C 16,7 C 43 % 1013,0 hPa 0,0 l/m 0 min 0 min 0 W/m 3,2 km/h (1 Bft) 98,00 %
21.04.2019 20:50 20,4 C 17,8 C 16,7 C 43 % 1013,0 hPa 0,0 l/m 0 min 0 min 0 W/m 0,0 km/h (0 Bft) 97,92 %
21.04.2019 20:48 20,5 C 18,3 C 16,7 C 43 % 1013,0 hPa 0,0 l/m 0 min 0 min 0 W/m 6,4 km/h (2 Bft) 97,67 %
21.04.2019 20:46 20,6 C 18,3 C 16,7 C 42 % 1012,9 hPa 0,0 l/m 0 min 0 min 0 W/m 3,2 km/h (1 Bft) 97,83 %
21.04.2019 20:44 20,6 C 18,3 C 16,7 C 42 % 1013,0 hPa 0,0 l/m 0 min 0 min 0 W/m 3,2 km/h (1 Bft) 97,87 %
21.04.2019 20:42 20,7 C 18,3 C 16,7 C 42 % 1013,0 hPa 0,0 l/m 0 min 0 min 1 W/m 6,4 km/h (2 Bft) 97,96 %
21.04.2019 20:40 20,8 C 18,3 C 16,7 C 42 % 1013,0 hPa 0,0 l/m 0 min 0 min 5 W/m 6,4 km/h (2 Bft) 95,92 %
21.04.2019 20:38 20,8 C 18,3 C 16,7 C 41 % 1013,0 hPa 0,0 l/m 0 min 0 min 5 W/m 6,4 km/h (2 Bft) 100,00 %
21.04.2019 20:36 20,9 C 18,3 C 16,7 C 41 % 1013,0 hPa 0,0 l/m 0 min 0 min 6 W/m 3,2 km/h (1 Bft) 96,15 %
21.04.2019 20:34 21,0 C 18,3 C 16,7 C 41 % 1012,9 hPa 0,0 l/m 0 min 0 min 7 W/m 3,2 km/h (1 Bft) 97,87 %
21.04.2019 20:32 21,1 C 18,9 C 17,2 C 40 % 1012,9 hPa 0,0 l/m 0 min 0 min 8 W/m 3,2 km/h (1 Bft) 97,92 %
21.04.2019 20:30 21,1 C 18,9 C 17,2 C 40 % 1013,0 hPa 0,0 l/m 0 min 0 min 9 W/m 3,2 km/h (1 Bft) 95,92 %
21.04.2019 20:28 21,2 C 18,9 C 17,2 C 41 % 1013,0 hPa 0,0 l/m 0 min 0 min 10 W/m 9,7 km/h (2 Bft) 97,96 %
21.04.2019 20:26 21,3 C 18,9 C 17,2 C 40 % 1013,0 hPa 0,0 l/m 0 min 0 min 11 W/m 6,4 km/h (2 Bft) 97,62 %
21.04.2019 20:24 21,3 C 18,9 C 17,2 C 41 % 1013,0 hPa 0,0 l/m 0 min 0 min 12 W/m 6,4 km/h (2 Bft) 97,83 %
21.04.2019 20:22 21,4 C 18,9 C 17,8 C 40 % 1013,0 hPa 0,0 l/m 0 min 0 min 13 W/m 6,4 km/h (2 Bft) 97,87 %
21.04.2019 20:20 21,4 C 19,4 C 17,8 C 39 % 1013,0 hPa 0,0 l/m 0 min 0 min 14 W/m 6,4 km/h (2 Bft) 97,96 %
21.04.2019 20:18 21,5 C 19,4 C 17,8 C 39 % 1013,0 hPa 0,0 l/m 0 min 0 min 15 W/m 3,2 km/h (1 Bft) 95,92 %
21.04.2019 20:16 21,6 C 19,4 C 17,8 C 39 % 1013,0 hPa 0,0 l/m 0 min 0 min 17 W/m 6,4 km/h (2 Bft) 97,92 %
21.04.2019 20:14 21,6 C 19,4 C 18,3 C 39 % 1012,9 hPa 0,0 l/m 0 min 0 min 18 W/m 9,7 km/h (2 Bft) 97,62 %
21.04.2019 20:12 21,7 C 19,4 C 18,3 C 39 % 1012,9 hPa 0,0 l/m 0 min 0 min 19 W/m 6,4 km/h (2 Bft) 97,83 %
21.04.2019 20:10 21,8 C 19,4 C 18,3 C 39 % 1012,9 hPa 0,0 l/m 0 min 0 min 20 W/m 9,7 km/h (2 Bft) 97,87 %
21.04.2019 20:08 21,9 C 20,0 C 18,3 C 39 % 1012,9 hPa 0,0 l/m 0 min 0 min 21 W/m 16,1 km/h (3 Bft) 91,43 %
21.04.2019 20:06 22,0 C 20,0 C 18,3 C 39 % 1012,9 hPa 0,0 l/m 0 min 0 min 22 W/m 9,7 km/h (2 Bft) 98,44 %
21.04.2019 20:04 22,1 C 20,0 C 18,3 C 39 % 1012,9 hPa 0,0 l/m 0 min 0 min 23 W/m 9,7 km/h (2 Bft) 95,65 %
21.04.2019 20:02 22,2 C 20,0 C 18,3 C 39 % 1013,0 hPa 0,0 l/m 0 min 0 min 25 W/m 9,7 km/h (2 Bft) 95,35 %
21.04.2019 20:00 22,2 C 20,0 C 18,3 C 39 % 1012,9 hPa 0,0 l/m 0 min 0 min 25 W/m 6,4 km/h (2 Bft) 95,65 %
21.04.2019 19:58 22,3 C 20,0 C 18,3 C 38 % 1013,0 hPa 0,0 l/m 0 min 0 min 26 W/m 6,4 km/h (2 Bft) 97,87 %
21.04.2019 19:56 22,4 C 20,0 C 18,3 C 39 % 1012,9 hPa 0,0 l/m 0 min 0 min 27 W/m 12,9 km/h (3 Bft) 95,83 %
21.04.2019 19:54 22,5 C 20,0 C 18,3 C 40 % 1013,0 hPa 0,0 l/m 0 min 0 min 28 W/m 6,4 km/h (2 Bft) 97,96 %
21.04.2019 19:52 22,6 C 20,6 C 18,3 C 39 % 1013,0 hPa 0,0 l/m 0 min 0 min 30 W/m 3,2 km/h (1 Bft) 97,96 %
21.04.2019 19:50 22,6 C 20,6 C 18,3 C 39 % 1013,0 hPa 0,0 l/m 0 min 0 min 30 W/m 6,4 km/h (2 Bft) 97,62 %
21.04.2019 19:48 22,7 C 20,6 C 18,9 C 39 % 1013,0 hPa 0,0 l/m 0 min 0 min 32 W/m 3,2 km/h (1 Bft) 97,83 %
21.04.2019 19:46 22,8 C 20,6 C 18,9 C 39 % 1012,9 hPa 0,0 l/m 0 min 0 min 33 W/m 6,4 km/h (2 Bft) 97,87 %
21.04.2019 19:44 22,9 C 20,6 C 18,9 C 39 % 1012,9 hPa 0,0 l/m 0 min 0 min 33 W/m 6,4 km/h (2 Bft) 95,92 %
21.04.2019 19:42 22,9 C 21,1 C 18,9 C 38 % 1013,0 hPa 0,0 l/m 0 min 0 min 34 W/m 3,2 km/h (1 Bft) 98,00 %
21.04.2019 19:40 23,0 C 21,1 C 18,9 C 39 % 1012,9 hPa 0,0 l/m 0 min 0 min 36 W/m 6,4 km/h (2 Bft) 97,62 %
21.04.2019 19:38 23,1 C 21,1 C 18,9 C 39 % 1013,1 hPa 0,0 l/m 0 min 0 min 37 W/m 6,4 km/h (2 Bft) 94,29 %
21.04.2019 19:36 23,1 C 21,1 C 18,9 C 38 % 1013,0 hPa 0,0 l/m 0 min 0 min 37 W/m 6,4 km/h (2 Bft) 96,55 %
21.04.2019 19:34 23,2 C 21,1 C 18,9 C 37 % 1013,0 hPa 0,0 l/m 0 min 0 min 39 W/m 6,4 km/h (2 Bft) 93,62 %
21.04.2019 19:32 23,3 C 21,7 C 19,4 C 37 % 1013,1 hPa 0,0 l/m 0 min 0 min 40 W/m 3,2 km/h (1 Bft) 95,92 %
21.04.2019 19:30 23,3 C 21,7 C 19,4 C 37 % 1013,1 hPa 0,0 l/m 0 min 0 min 40 W/m 3,2 km/h (1 Bft) 93,88 %
21.04.2019 19:28 23,4 C 21,7 C 19,4 C 38 % 1013,1 hPa 0,0 l/m 0 min 0 min 42 W/m 3,2 km/h (1 Bft) 93,75 %
21.04.2019 19:26 23,4 C 21,7 C 19,4 C 37 % 1013,1 hPa 0,0 l/m 0 min 0 min 42 W/m 3,2 km/h (1 Bft) 95,24 %
21.04.2019 19:24 23,6 C 21,7 C 19,4 C 38 % 1013,1 hPa 0,0 l/m 0 min 0 min 43 W/m 3,2 km/h (1 Bft) 95,65 %
21.04.2019 19:22 23,6 C 21,7 C 19,4 C 37 % 1013,1 hPa 0,0 l/m 0 min 0 min 44 W/m 16,1 km/h (3 Bft) 95,74 %
21.04.2019 19:20 23,7 C 22,2 C 19,4 C 36 % 1013,2 hPa 0,0 l/m 0 min 0 min 44 W/m 9,7 km/h (2 Bft) 97,96 %
21.04.2019 19:18 23,8 C 22,2 C 20,0 C 36 % 1013,2 hPa 0,0 l/m 0 min 0 min 46 W/m 6,4 km/h (2 Bft) 95,92 %
21.04.2019 19:16 23,8 C 22,2 C 20,0 C 36 % 1013,2 hPa 0,0 l/m 0 min 0 min 46 W/m 6,4 km/h (2 Bft) 95,65 %
21.04.2019 19:14 23,9 C 22,2 C 20,0 C 36 % 1013,1 hPa 0,0 l/m 0 min 0 min 47 W/m 6,4 km/h (2 Bft) 100,00 %
21.04.2019 19:12 23,9 C 22,2 C 20,0 C 36 % 1013,3 hPa 0,0 l/m 0 min 0 min 47 W/m 6,4 km/h (2 Bft) 97,87 %
21.04.2019 19:10 24,0 C 22,2 C 20,6 C 35 % 1013,3 hPa 0,0 l/m 0 min 0 min 49 W/m 6,4 km/h (2 Bft) 97,56 %
21.04.2019 19:08 24,1 C 22,2 C 20,0 C 35 % 1013,2 hPa 0,0 l/m 0 min 0 min 49 W/m 6,4 km/h (2 Bft) 97,14 %
21.04.2019 19:06 24,2 C 22,2 C 20,0 C 36 % 1013,2 hPa 0,0 l/m 0 min 0 min 50 W/m 6,4 km/h (2 Bft) 98,33 %
21.04.2019 19:04 24,3 C 22,2 C 20,6 C 36 % 1013,3 hPa 0,0 l/m 0 min 0 min 51 W/m 6,4 km/h (2 Bft) 95,65 %
21.04.2019 19:02 24,4 C 22,8 C 20,6 C 35 % 1013,4 hPa 0,0 l/m 0 min 0 min 52 W/m 6,4 km/h (2 Bft) 98,00 %
21.04.2019 19:00 24,5 C 22,8 C 20,6 C 35 % 1013,3 hPa 0,0 l/m 0 min 0 min 53 W/m 3,2 km/h (1 Bft) 97,87 %
21.04.2019 18:58 24,6 C 22,8 C 20,6 C 35 % 1013,3 hPa 0,0 l/m 0 min 0 min 53 W/m 3,2 km/h (1 Bft) 97,67 %
21.04.2019 18:56 24,7 C 22,8 C 20,6 C 34 % 1013,4 hPa 0,0 l/m 0 min 0 min 54 W/m 6,4 km/h (2 Bft) 97,87 %
21.04.2019 18:54 24,8 C 22,8 C 20,6 C 34 % 1013,4 hPa 0,0 l/m 0 min 0 min 55 W/m 6,4 km/h (2 Bft) 97,87 %
21.04.2019 18:52 24,9 C 22,8 C 20,6 C 35 % 1013,4 hPa 0,0 l/m 0 min 0 min 56 W/m 6,4 km/h (2 Bft) 97,87 %
21.04.2019 18:50 24,9 C 22,8 C 20,6 C 34 % 1013,4 hPa 0,0 l/m 0 min 0 min 56 W/m 6,4 km/h (2 Bft) 97,96 %
21.04.2019 18:48 25,1 C 22,8 C 20,6 C 34 % 1013,4 hPa 0,0 l/m 0 min 0 min 58 W/m 9,7 km/h (2 Bft) 97,96 %
21.04.2019 18:46 25,1 C 22,8 C 20,6 C 34 % 1013,5 hPa 0,0 l/m 0 min 0 min 58 W/m 6,4 km/h (2 Bft) 97,62 %
21.04.2019 18:44 25,2 C 23,3 C 20,6 C 34 % 1013,5 hPa 0,0 l/m 0 min 0 min 62 W/m 6,4 km/h (2 Bft) 97,87 %
21.04.2019 18:42 25,3 C 23,3 C 20,6 C 33 % 1013,5 hPa 0,0 l/m 0 min 0 min 132 W/m 6,4 km/h (2 Bft) 95,74 %
21.04.2019 18:40 25,4 C 23,3 C 21,1 C 34 % 1013,5 hPa 0,0 l/m 2 min 0 min 253 W/m 6,4 km/h (2 Bft) 97,87 %
21.04.2019 18:38 25,5 C 23,9 C 21,1 C 34 % 1013,5 hPa 0,0 l/m 2 min 0 min 276 W/m 6,4 km/h (2 Bft) 100,00 %
21.04.2019 18:36 25,6 C 23,9 C 21,1 C 35 % 1013,6 hPa 0,0 l/m 2 min 0 min 281 W/m 6,4 km/h (2 Bft) 95,24 %
21.04.2019 18:34 25,7 C 24,4 C 21,1 C 34 % 1013,6 hPa 0,0 l/m 2 min 0 min 288 W/m 3,2 km/h (1 Bft) 100,00 %
21.04.2019 18:32 25,8 C 24,4 C 21,1 C 34 % 1013,6 hPa 0,0 l/m 2 min 0 min 294 W/m 6,4 km/h (2 Bft) 97,87 %
21.04.2019 18:30 25,8 C 25,0 C 21,1 C 34 % 1013,6 hPa 0,0 l/m 2 min 0 min 301 W/m 16,1 km/h (3 Bft) 97,87 %
21.04.2019 18:28 25,9 C 25,0 C 21,1 C 34 % 1013,6 hPa 0,0 l/m 2 min 0 min 308 W/m 12,9 km/h (3 Bft) 97,92 %
21.04.2019 18:26 25,9 C 25,0 C 21,1 C 32 % 1013,7 hPa 0,0 l/m 2 min 0 min 315 W/m 12,9 km/h (3 Bft) 95,92 %
21.04.2019 18:24 26,0 C 25,0 C 21,7 C 34 % 1013,7 hPa 0,0 l/m 2 min 0 min 321 W/m 9,7 km/h (2 Bft) 95,92 %
21.04.2019 18:22 26,0 C 25,6 C 21,7 C 33 % 1013,7 hPa 0,0 l/m 2 min 0 min 328 W/m 9,7 km/h (2 Bft) 97,56 %
21.04.2019 18:20 26,0 C 25,6 C 21,7 C 33 % 1013,7 hPa 0,0 l/m 2 min 0 min 334 W/m 6,4 km/h (2 Bft) 100,00 %
21.04.2019 18:18 26,1 C 26,1 C 21,7 C 33 % 1013,8 hPa 0,0 l/m 2 min 0 min 340 W/m 6,4 km/h (2 Bft) 95,74 %
21.04.2019 18:16 26,1 C 26,1 C 22,2 C 33 % 1013,8 hPa 0,0 l/m 2 min 0 min 344 W/m 6,4 km/h (2 Bft) 97,92 %
21.04.2019 18:14 26,1 C 26,1 C 22,2 C 34 % 1013,9 hPa 0,0 l/m 2 min 0 min 348 W/m 9,7 km/h (2 Bft) 100,00 %
21.04.2019 18:12 26,1 C 26,1 C 22,8 C 33 % 1013,9 hPa 0,0 l/m 2 min 0 min 355 W/m 12,9 km/h (3 Bft) 100,00 %
21.04.2019 18:10 26,1 C 26,1 C 22,8 C 33 % 1013,9 hPa 0,0 l/m 2 min 0 min 361 W/m 9,7 km/h (2 Bft) 100,00 %
21.04.2019 18:08 26,2 C 26,1 C 22,8 C 32 % 1013,9 hPa 0,0 l/m 4 min 0 min 372 W/m 9,7 km/h (2 Bft) 100,00 %
21.04.2019 18:04 26,3 C 26,1 C 22,8 C 32 % 1013,9 hPa 0,0 l/m 2 min 0 min 382 W/m 3,2 km/h (1 Bft) 100,00 %
21.04.2019 18:02 26,3 C 25,6 C 22,8 C 32 % 1014,0 hPa 0,0 l/m 2 min 0 min 389 W/m 9,7 km/h (2 Bft) 96,00 %
21.04.2019 18:00 26,4 C 26,1 C 22,8 C 33 % 1014,0 hPa 0,0 l/m 2 min 0 min 394 W/m 9,7 km/h (2 Bft) 100,00 %
21.04.2019 17:58 26,4 C 26,1 C 22,8 C 32 % 1014,0 hPa 0,0 l/m 2 min 0 min 402 W/m 9,7 km/h (2 Bft) 100,00 %
21.04.2019 17:56 26,6 C 26,7 C 22,8 C 32 % 1014,1 hPa 0,0 l/m 2 min 0 min 407 W/m 12,9 km/h (3 Bft) 95,74 %
21.04.2019 17:54 26,6 C 26,7 C 22,8 C 33 % 1014,1 hPa 0,0 l/m 2 min 0 min 414 W/m 9,7 km/h (2 Bft) 97,87 %
21.04.2019 17:52 26,7 C 27,2 C 23,3 C 33 % 1014,1 hPa 0,0 l/m 2 min 0 min 419 W/m 6,4 km/h (2 Bft) 100,00 %
21.04.2019 17:50 26,7 C 26,7 C 23,3 C 32 % 1014,1 hPa 0,0 l/m 2 min 0 min 427 W/m 3,2 km/h (1 Bft) 100,00 %
21.04.2019 17:48 26,7 C 26,7 C 23,3 C 32 % 1014,2 hPa 0,0 l/m 2 min 0 min 434 W/m 6,4 km/h (2 Bft) 100,00 %
21.04.2019 17:46 26,8 C 27,8 C 23,3 C 33 % 1014,1 hPa 0,0 l/m 2 min 0 min 438 W/m 6,4 km/h (2 Bft) 100,00 %
21.04.2019 17:44 26,8 C 27,8 C 23,3 C 33 % 1014,2 hPa 0,0 l/m 2 min 0 min 445 W/m 6,4 km/h (2 Bft) 95,74 %
21.04.2019 17:42 26,8 C 27,8 C 23,3 C 35 % 1014,2 hPa 0,0 l/m 2 min 0 min 451 W/m 6,4 km/h (2 Bft) 100,00 %
21.04.2019 17:40 26,8 C 27,8 C 23,3 C 35 % 1014,2 hPa 0,0 l/m 2 min 0 min 457 W/m 6,4 km/h (2 Bft) 97,87 %
21.04.2019 17:38 26,8 C 27,8 C 23,9 C 33 % 1014,2 hPa 0,0 l/m 2 min 0 min 464 W/m 16,1 km/h (3 Bft) 97,14 %
21.04.2019 17:36 26,8 C 28,3 C 23,9 C 34 % 1014,2 hPa 0,0 l/m 2 min 0 min 470 W/m 12,9 km/h (3 Bft) 95,24 %
21.04.2019 17:34 26,8 C 28,3 C 24,4 C 35 % 1014,2 hPa 0,0 l/m 2 min 0 min 476 W/m 3,2 km/h (1 Bft) 97,62 %
21.04.2019 17:32 26,8 C 27,8 C 25,0 C 31 % 1014,2 hPa 0,0 l/m 2 min 0 min 481 W/m 9,7 km/h (2 Bft) 97,87 %
21.04.2019 17:30 26,7 C 28,9 C 25,0 C 33 % 1014,2 hPa 0,0 l/m 2 min 0 min 488 W/m 12,9 km/h (3 Bft) 95,74 %
21.04.2019 17:28 26,7 C 28,9 C 25,0 C 32 % 1014,2 hPa 0,0 l/m 2 min 0 min 492 W/m 16,1 km/h (3 Bft) 93,75 %
21.04.2019 17:26 26,7 C 29,4 C 25,0 C 33 % 1014,3 hPa 0,0 l/m 2 min 0 min 497 W/m 6,4 km/h (2 Bft) 93,88 %
21.04.2019 17:24 26,7 C 29,4 C 25,6 C 32 % 1014,4 hPa 0,0 l/m 2 min 0 min 503 W/m 9,7 km/h (2 Bft) 95,92 %
21.04.2019 17:22 26,6 C 29,4 C 25,6 C 32 % 1014,4 hPa 0,0 l/m 2 min 0 min 506 W/m 9,7 km/h (2 Bft) 95,12 %
21.04.2019 17:20 26,6 C 29,4 C 25,0 C 34 % 1014,4 hPa 0,0 l/m 2 min 0 min 513 W/m 9,7 km/h (2 Bft) 95,74 %
21.04.2019 17:18 26,5 C 29,4 C 25,0 C 35 % 1014,4 hPa 0,0 l/m 2 min 0 min 520 W/m 9,7 km/h (2 Bft) 95,74 %
21.04.2019 17:16 26,5 C 29,4 C 25,0 C 33 % 1014,4 hPa 0,0 l/m 2 min 0 min 526 W/m 6,4 km/h (2 Bft) 95,83 %
21.04.2019 17:14 26,4 C 29,4 C 25,0 C 33 % 1014,5 hPa 0,0 l/m 2 min 0 min 529 W/m 12,9 km/h (3 Bft) 95,92 %
21.04.2019 17:12 26,3 C 29,4 C 25,0 C 33 % 1014,5 hPa 0,0 l/m 2 min 0 min 536 W/m 9,7 km/h (2 Bft) 95,35 %
21.04.2019 17:10 26,3 C 29,4 C 25,0 C 32 % 1014,5 hPa 0,0 l/m 2 min 0 min 545 W/m 12,9 km/h (3 Bft) 95,74 %
21.04.2019 17:08 26,3 C 29,4 C 25,0 C 33 % 1014,5 hPa 0,0 l/m 2 min 0 min 551 W/m 9,7 km/h (2 Bft) 94,29 %
21.04.2019 17:06 26,2 C 28,9 C 25,0 C 33 % 1014,6 hPa 0,0 l/m 2 min 0 min 555 W/m 3,2 km/h (1 Bft) 93,33 %
21.04.2019 17:04 26,2 C 28,3 C 25,0 C 31 % 1014,6 hPa 0,0 l/m 2 min 0 min 561 W/m 6,4 km/h (2 Bft) 95,74 %
21.04.2019 17:02 26,3 C 28,3 C 25,0 C 33 % 1014,7 hPa 0,0 l/m 2 min 0 min 568 W/m 6,4 km/h (2 Bft) 96,00 %
21.04.2019 17:00 26,3 C 27,2 C 25,6 C 30 % 1014,7 hPa 0,0 l/m 2 min 0 min 573 W/m 12,9 km/h (3 Bft) 95,74 %
21.04.2019 16:58 26,4 C 27,8 C 25,6 C 30 % 1014,8 hPa 0,0 l/m 2 min 0 min 580 W/m 9,7 km/h (2 Bft) 95,24 %
21.04.2019 16:56 26,5 C 28,3 C 25,6 C 32 % 1014,7 hPa 0,0 l/m 2 min 0 min 585 W/m 12,9 km/h (3 Bft) 93,62 %
21.04.2019 16:54 26,6 C 28,3 C 25,6 C 30 % 1014,7 hPa 0,0 l/m 2 min 0 min 592 W/m 12,9 km/h (3 Bft) 95,65 %
21.04.2019 16:52 26,7 C 28,9 C 25,6 C 31 % 1014,7 hPa 0,0 l/m 2 min 0 min 597 W/m 6,4 km/h (2 Bft) 96,00 %
21.04.2019 16:50 26,7 C 28,9 C 26,1 C 30 % 1014,7 hPa 0,0 l/m 2 min 0 min 602 W/m 9,7 km/h (2 Bft) 95,92 %
21.04.2019 16:48 26,8 C 29,4 C 27,2 C 31 % 1014,8 hPa 0,0 l/m 2 min 0 min 607 W/m 9,7 km/h (2 Bft) 97,62 %
21.04.2019 16:46 26,8 C 28,9 C 27,8 C 30 % 1014,8 hPa 0,0 l/m 2 min 0 min 612 W/m 6,4 km/h (2 Bft) 97,87 %
21.04.2019 16:44 26,9 C 30,0 C 27,8 C 31 % 1014,8 hPa 0,0 l/m 2 min 0 min 619 W/m 9,7 km/h (2 Bft) 97,87 %
21.04.2019 16:42 26,9 C 30,6 C 27,2 C 33 % 1014,8 hPa 0,0 l/m 2 min 0 min 625 W/m 9,7 km/h (2 Bft) 97,92 %
21.04.2019 16:40 26,9 C 30,6 C 26,1 C 32 % 1014,8 hPa 0,0 l/m 2 min 0 min 630 W/m 9,7 km/h (2 Bft) 97,96 %
21.04.2019 16:38 26,9 C 30,6 C 26,1 C 33 % 1014,8 hPa 0,0 l/m 2 min 0 min 637 W/m 9,7 km/h (2 Bft) 97,30 %
21.04.2019 16:36 26,8 C 31,1 C 26,1 C 33 % 1014,8 hPa 0,0 l/m 2 min 0 min 640 W/m 6,4 km/h (2 Bft) 96,23 %
21.04.2019 16:34 26,8 C 30,6 C 26,1 C 34 % 1014,9 hPa 0,0 l/m 2 min 0 min 646 W/m 6,4 km/h (2 Bft) 100,00 %
21.04.2019 16:32 26,8 C 30,0 C 26,1 C 32 % 1015,0 hPa 0,0 l/m 2 min 0 min 652 W/m 9,7 km/h (2 Bft) 100,00 %
21.04.2019 16:30 26,8 C 29,4 C 25,6 C 31 % 1015,0 hPa 0,0 l/m 2 min 0 min 656 W/m 9,7 km/h (2 Bft) 100,00 %
21.04.2019 16:28 26,9 C 30,6 C 25,6 C 32 % 1014,9 hPa 0,0 l/m 2 min 0 min 659 W/m 12,9 km/h (3 Bft) 100,00 %
21.04.2019 16:26 26,9 C 30,6 C 25,6 C 32 % 1015,0 hPa 0,0 l/m 2 min 0 min 663 W/m 12,9 km/h (3 Bft) 100,00 %
21.04.2019 16:24 26,9 C 31,7 C 25,6 C 30 % 1015,0 hPa 0,0 l/m 2 min 0 min 666 W/m 9,7 km/h (2 Bft) 97,87 %
21.04.2019 16:22 26,9 C 31,1 C 25,6 C 31 % 1015,1 hPa 0,0 l/m 2 min 0 min 670 W/m 9,7 km/h (2 Bft) 100,00 %
21.04.2019 16:20 26,9 C 31,1 C 25,6 C 31 % 1015,1 hPa 0,0 l/m 2 min 0 min 678 W/m 9,7 km/h (2 Bft) 100,00 %
21.04.2019 16:18 26,9 C 31,1 C 25,6 C 31 % 1015,1 hPa 0,0 l/m 2 min 0 min 680 W/m 12,9 km/h (3 Bft) 100,00 %
21.04.2019 16:16 26,9 C 31,1 C 25,6 C 31 % 1015,1 hPa 0,0 l/m 2 min 0 min 686 W/m 16,1 km/h (3 Bft) 97,56 %
21.04.2019 16:14 26,9 C 31,1 C 25,6 C 31 % 1015,1 hPa 0,0 l/m 2 min 0 min 691 W/m 9,7 km/h (2 Bft) 100,00 %
21.04.2019 16:12 26,9 C 31,7 C 25,6 C 32 % 1015,1 hPa 0,0 l/m 2 min 0 min 694 W/m 16,1 km/h (3 Bft) 100,00 %
21.04.2019 16:10 26,8 C 31,7 C 25,6 C 33 % 1015,2 hPa 0,0 l/m 2 min 0 min 698 W/m 12,9 km/h (3 Bft) 97,96 %
21.04.2019 16:08 26,8 C 31,1 C 25,6 C 33 % 1015,2 hPa 0,0 l/m 2 min 0 min 704 W/m 9,7 km/h (2 Bft) 97,30 %
21.04.2019 16:06 26,9 C 31,1 C 25,6 C 30 % 1015,2 hPa 0,0 l/m 2 min 0 min 706 W/m 9,7 km/h (2 Bft) 98,36 %
21.04.2019 16:04 26,9 C 31,7 C 25,6 C 31 % 1015,3 hPa 0,0 l/m 2 min 0 min 705 W/m 6,4 km/h (2 Bft) 97,87 %
21.04.2019 16:02 26,9 C 31,1 C 25,6 C 33 % 1015,4 hPa 0,0 l/m 2 min 0 min 711 W/m 12,9 km/h (3 Bft) 97,56 %
21.04.2019 16:00 26,9 C 30,6 C 25,6 C 30 % 1015,4 hPa 0,0 l/m 2 min 0 min 716 W/m 6,4 km/h (2 Bft) 97,87 %
21.04.2019 15:58 26,9 C 30,6 C 25,6 C 31 % 1015,4 hPa 0,0 l/m 2 min 0 min 719 W/m 9,7 km/h (2 Bft) 97,87 %
21.04.2019 15:56 26,9 C 30,6 C 25,6 C 30 % 1015,5 hPa 0,0 l/m 2 min 0 min 725 W/m 6,4 km/h (2 Bft) 97,92 %
21.04.2019 15:54 26,9 C 31,7 C 26,1 C 32 % 1015,5 hPa 0,0 l/m 2 min 0 min 727 W/m 12,9 km/h (3 Bft) 97,96 %
21.04.2019 15:52 26,9 C 32,2 C 26,1 C 32 % 1015,5 hPa 0,0 l/m 2 min 0 min 730 W/m 12,9 km/h (3 Bft) 97,67 %
21.04.2019 15:50 26,8 C 32,2 C 26,1 C 32 % 1015,5 hPa 0,0 l/m 2 min 0 min 736 W/m 12,9 km/h (3 Bft) 97,87 %
21.04.2019 15:48 26,8 C 32,8 C 26,1 C 34 % 1015,6 hPa 0,0 l/m 2 min 0 min 739 W/m 9,7 km/h (2 Bft) 95,74 %
21.04.2019 15:46 26,7 C 32,8 C 25,6 C 34 % 1015,6 hPa 0,0 l/m 2 min 0 min 739 W/m 9,7 km/h (2 Bft) 97,87 %
21.04.2019 15:44 26,6 C 31,7 C 25,6 C 31 % 1015,6 hPa 0,0 l/m 2 min 0 min 747 W/m 16,1 km/h (3 Bft) 97,96 %
21.04.2019 15:42 26,6 C 31,7 C 26,1 C 33 % 1015,7 hPa 0,0 l/m 2 min 0 min 753 W/m 12,9 km/h (3 Bft) 96,00 %
21.04.2019 15:40 26,5 C 32,2 C 26,1 C 34 % 1015,7 hPa 0,0 l/m 2 min 0 min 758 W/m 16,1 km/h (3 Bft) 97,87 %
21.04.2019 15:38 26,4 C 32,2 C 26,1 C 33 % 1015,7 hPa 0,0 l/m 2 min 0 min 762 W/m 12,9 km/h (3 Bft) 96,55 %
21.04.2019 15:36 26,3 C 31,7 C 26,1 C 33 % 1015,8 hPa 0,0 l/m 2 min 0 min 766 W/m 12,9 km/h (3 Bft) 98,31 %
21.04.2019 15:34 26,3 C 31,1 C 25,6 C 32 % 1015,8 hPa 0,0 l/m 2 min 0 min 767 W/m 9,7 km/h (2 Bft) 97,87 %
21.04.2019 15:32 26,3 C 30,6 C 25,6 C 32 % 1015,8 hPa 0,0 l/m 2 min 0 min 771 W/m 9,7 km/h (2 Bft) 97,96 %
21.04.2019 15:30 26,3 C 30,0 C 25,6 C 33 % 1015,8 hPa 0,0 l/m 2 min 0 min 772 W/m 9,7 km/h (2 Bft) 97,96 %
21.04.2019 15:28 26,4 C 28,9 C 25,0 C 30 % 1015,8 hPa 0,0 l/m 2 min 0 min 777 W/m 19,3 km/h (3 Bft) 97,62 %
21.04.2019 15:26 26,6 C 30,0 C 25,6 C 31 % 1015,9 hPa 0,0 l/m 2 min 0 min 779 W/m 12,9 km/h (3 Bft) 95,74 %
21.04.2019 15:24 26,6 C 31,7 C 26,1 C 32 % 1015,9 hPa 0,0 l/m 2 min 0 min 782 W/m 9,7 km/h (2 Bft) 100,00 %
21.04.2019 15:22 26,6 C 32,2 C 26,1 C 33 % 1015,8 hPa 0,0 l/m 2 min 0 min 788 W/m 12,9 km/h (3 Bft) 97,87 %
21.04.2019 15:20 26,6 C 32,2 C 26,1 C 34 % 1015,8 hPa 0,0 l/m 2 min 0 min 792 W/m 12,9 km/h (3 Bft) 97,96 %
21.04.2019 15:18 26,5 C 32,2 C 26,1 C 34 % 1015,8 hPa 0,0 l/m 2 min 0 min 795 W/m 9,7 km/h (2 Bft) 100,00 %
21.04.2019 15:16 26,4 C 31,7 C 25,6 C 32 % 1015,9 hPa 0,0 l/m 2 min 0 min 798 W/m 12,9 km/h (3 Bft) 100,00 %
21.04.2019 15:14 26,4 C 31,1 C 25,6 C 30 % 1016,0 hPa 0,0 l/m 2 min 0 min 800 W/m 9,7 km/h (2 Bft) 95,74 %
21.04.2019 15:12 26,4 C 32,2 C 26,1 C 34 % 1016,0 hPa 0,0 l/m 2 min 0 min 804 W/m 9,7 km/h (2 Bft) 97,87 %
21.04.2019 15:10 26,4 C 31,7 C 26,1 C 32 % 1016,1 hPa 0,0 l/m 2 min 0 min 805 W/m 9,7 km/h (2 Bft) 97,87 %
21.04.2019 15:08 26,4 C 32,2 C 26,7 C 32 % 1016,1 hPa 0,0 l/m 2 min 0 min 808 W/m 9,7 km/h (2 Bft) 100,00 %
21.04.2019 15:06 26,3 C 32,2 C 26,7 C 36 % 1016,2 hPa 0,0 l/m 2 min 0 min 806 W/m 12,9 km/h (3 Bft) 100,00 %
21.04.2019 15:04 26,3 C 32,2 C 26,7 C 34 % 1016,3 hPa 0,0 l/m 2 min 0 min 803 W/m 12,9 km/h (3 Bft) 95,74 %
21.04.2019 15:02 26,2 C 31,7 C 26,7 C 35 % 1016,3 hPa 0,0 l/m 2 min 0 min 803 W/m 9,7 km/h (2 Bft) 100,00 %
21.04.2019 15:00 26,3 C 32,2 C 26,7 C 35 % 1016,3 hPa 0,0 l/m 2 min 0 min 806 W/m 12,9 km/h (3 Bft) 100,00 %
21.04.2019 14:58 26,2 C 32,8 C 26,7 C 38 % 1016,4 hPa 0,0 l/m 2 min 0 min 811 W/m 9,7 km/h (2 Bft) 100,00 %
21.04.2019 14:56 26,1 C 31,7 C 27,2 C 35 % 1016,4 hPa 0,0 l/m 2 min 0 min 818 W/m 6,4 km/h (2 Bft) 100,00 %
21.04.2019 14:54 26,1 C 31,7 C 27,2 C 34 % 1016,5 hPa 0,0 l/m 2 min 0 min 818 W/m 16,1 km/h (3 Bft) 97,96 %
21.04.2019 14:52 26,1 C 31,7 C 28,3 C 35 % 1016,6 hPa 0,0 l/m 2 min 0 min 819 W/m 9,7 km/h (2 Bft) 97,96 %
21.04.2019 14:50 26,0 C 31,7 C 29,4 C 36 % 1016,6 hPa 0,0 l/m 2 min 0 min 811 W/m 12,9 km/h (3 Bft) 97,56 %
21.04.2019 14:48 25,9 C 31,1 C 30,0 C 35 % 1016,5 hPa 0,0 l/m 2 min 0 min 811 W/m 12,9 km/h (3 Bft) 95,74 %
21.04.2019 14:46 25,9 C 31,7 C 29,4 C 35 % 1016,5 hPa 0,0 l/m 2 min 0 min 815 W/m 12,9 km/h (3 Bft) 97,87 %
21.04.2019 14:44 25,9 C 31,7 C 31,1 C 37 % 1016,6 hPa 0,0 l/m 2 min 0 min 819 W/m 6,4 km/h (2 Bft) 97,83 %
21.04.2019 14:42 25,8 C 31,1 C 32,2 C 37 % 1016,6 hPa 0,0 l/m 2 min 0 min 818 W/m 12,9 km/h (3 Bft) 97,87 %
21.04.2019 14:40 25,8 C 30,6 C 32,2 C 36 % 1016,7 hPa 0,0 l/m 2 min 0 min 821 W/m 6,4 km/h (2 Bft) 97,96 %
21.04.2019 14:38 25,8 C 30,0 C 32,2 C 34 % 1016,6 hPa 0,0 l/m 2 min 0 min 822 W/m 9,7 km/h (2 Bft) 97,30 %
21.04.2019 14:36 25,8 C 31,1 C 33,3 C 37 % 1016,7 hPa 0,0 l/m 2 min 0 min 831 W/m 12,9 km/h (3 Bft) 98,33 %
21.04.2019 14:34 25,7 C 32,2 C 34,4 C 37 % 1016,7 hPa 0,0 l/m 2 min 0 min 836 W/m 12,9 km/h (3 Bft) 95,12 %
21.04.2019 14:32 25,7 C 32,8 C 34,4 C 36 % 1016,8 hPa 0,0 l/m 2 min 0 min 831 W/m 9,7 km/h (2 Bft) 95,83 %
21.04.2019 14:30 25,6 C 32,2 C 34,4 C 35 % 1016,8 hPa 0,0 l/m 2 min 0 min 833 W/m 12,9 km/h (3 Bft) 95,92 %
21.04.2019 14:28 25,6 C 31,7 C 34,4 C 37 % 1016,8 hPa 0,0 l/m 2 min 0 min 842 W/m 9,7 km/h (2 Bft) 95,92 %
21.04.2019 14:26 25,5 C 30,6 C 33,3 C 36 % 1016,8 hPa 0,0 l/m 2 min 0 min 840 W/m 9,7 km/h (2 Bft) 97,62 %
21.04.2019 14:24 25,6 C 30,6 C 33,3 C 36 % 1016,8 hPa 0,0 l/m 2 min 0 min 841 W/m 12,9 km/h (3 Bft) 97,87 %
21.04.2019 14:22 25,6 C 30,0 C 32,8 C 36 % 1016,8 hPa 0,0 l/m 2 min 0 min 843 W/m 9,7 km/h (2 Bft) 95,65 %
21.04.2019 14:20 25,6 C 28,9 C 31,1 C 34 % 1016,8 hPa 0,0 l/m 2 min 0 min 844 W/m 12,9 km/h (3 Bft) 95,83 %
21.04.2019 14:18 25,8 C 28,3 C 31,1 C 33 % 1016,9 hPa 0,0 l/m 2 min 0 min 843 W/m 16,1 km/h (3 Bft) 97,96 %
21.04.2019 14:16 26,0 C 28,9 C 32,2 C 33 % 1016,9 hPa 0,0 l/m 2 min 0 min 847 W/m 12,9 km/h (3 Bft) 95,92 %
21.04.2019 14:14 26,1 C 30,0 C 32,8 C 34 % 1017,0 hPa 0,0 l/m 2 min 0 min 848 W/m 9,7 km/h (2 Bft) 95,24 %
21.04.2019 14:12 26,2 C 30,0 C 32,8 C 31 % 1017,0 hPa 0,0 l/m 2 min 0 min 848 W/m 12,9 km/h (3 Bft) 97,87 %
21.04.2019 14:10 26,3 C 32,2 C 34,4 C 33 % 1017,0 hPa 0,0 l/m 2 min 0 min 847 W/m 12,9 km/h (3 Bft) 95,65 %
21.04.2019 14:08 26,2 C 32,8 C 35,0 C 33 % 1017,0 hPa 0,0 l/m 2 min 0 min 849 W/m 9,7 km/h (2 Bft) 97,22 %
21.04.2019 14:06 26,2 C 32,8 C 34,4 C 36 % 1017,1 hPa 0,0 l/m 2 min 0 min 856 W/m 16,1 km/h (3 Bft) 98,31 %
21.04.2019 14:04 26,1 C 32,8 C 33,9 C 35 % 1017,1 hPa 0,0 l/m 2 min 0 min 854 W/m 9,7 km/h (2 Bft) 97,87 %
21.04.2019 14:02 26,1 C 32,8 C 33,9 C 34 % 1017,1 hPa 0,0 l/m 2 min 0 min 853 W/m 6,4 km/h (2 Bft) 97,96 %
21.04.2019 14:00 26,1 C 32,2 C 34,4 C 36 % 1017,1 hPa 0,0 l/m 2 min 0 min 852 W/m 9,7 km/h (2 Bft) 97,87 %
21.04.2019 13:58 26,1 C 32,2 C 33,9 C 35 % 1017,2 hPa 0,0 l/m 2 min 0 min 852 W/m 12,9 km/h (3 Bft) 95,35 %
21.04.2019 13:56 26,0 C 31,7 C 33,3 C 35 % 1017,1 hPa 0,0 l/m 2 min 0 min 851 W/m 25,7 km/h (4 Bft) 97,87 %
21.04.2019 13:54 26,1 C 31,1 C 33,9 C 34 % 1017,2 hPa 0,0 l/m 2 min 0 min 853 W/m 12,9 km/h (3 Bft) 100,00 %
21.04.2019 13:52 26,1 C 32,2 C 35,0 C 34 % 1017,3 hPa 0,0 l/m 2 min 0 min 853 W/m 12,9 km/h (3 Bft) 97,92 %
21.04.2019 13:50 26,1 C 32,8 C 35,0 C 36 % 1017,3 hPa 0,0 l/m 2 min 0 min 856 W/m 16,1 km/h (3 Bft) 97,92 %
21.04.2019 13:48 26,0 C 33,3 C 35,6 C 37 % 1017,3 hPa 0,0 l/m 2 min 0 min 852 W/m 12,9 km/h (3 Bft) 95,92 %
21.04.2019 13:46 25,9 C 33,3 C 35,6 C 38 % 1017,4 hPa 0,0 l/m 2 min 0 min 857 W/m 9,7 km/h (2 Bft) 97,62 %
21.04.2019 13:44 25,8 C 32,2 C 34,4 C 37 % 1017,4 hPa 0,0 l/m 2 min 0 min 855 W/m 9,7 km/h (2 Bft) 97,87 %
21.04.2019 13:42 25,8 C 32,2 C 34,4 C 36 % 1017,4 hPa 0,0 l/m 2 min 0 min 857 W/m 9,7 km/h (2 Bft) 95,74 %
21.04.2019 13:40 25,8 C 32,8 C 34,4 C 37 % 1017,4 hPa 0,0 l/m 2 min 0 min 852 W/m 12,9 km/h (3 Bft) 97,87 %
21.04.2019 13:38 25,7 C 32,2 C 33,9 C 35 % 1017,5 hPa 0,0 l/m 2 min 0 min 851 W/m 9,7 km/h (2 Bft) 100,00 %
21.04.2019 13:36 25,7 C 32,2 C 33,9 C 36 % 1017,4 hPa 0,0 l/m 2 min 0 min 849 W/m 9,7 km/h (2 Bft) 96,61 %
21.04.2019 13:34 25,7 C 31,7 C 33,3 C 36 % 1017,5 hPa 0,0 l/m 2 min 0 min 851 W/m 12,9 km/h (3 Bft) 97,83 %
21.04.2019 13:32 25,7 C 31,7 C 34,4 C 36 % 1017,5 hPa 0,0 l/m 2 min 0 min 845 W/m 12,9 km/h (3 Bft) 97,87 %
21.04.2019 13:30 25,7 C 31,7 C 33,3 C 38 % 1017,6 hPa 0,0 l/m 2 min 0 min 848 W/m 9,7 km/h (2 Bft) 97,87 %
21.04.2019 13:28 25,7 C 31,7 C 33,3 C 37 % 1017,7 hPa 0,0 l/m 2 min 0 min 847 W/m 12,9 km/h (3 Bft) 97,87 %
21.04.2019 13:26 25,7 C 32,8 C 33,9 C 37 % 1017,5 hPa 0,0 l/m 2 min 0 min 847 W/m 22,5 km/h (4 Bft) 97,87 %
21.04.2019 13:24 25,7 C 32,2 C 33,3 C 39 % 1017,7 hPa 0,0 l/m 2 min 0 min 846 W/m 19,3 km/h (3 Bft) 97,87 %
21.04.2019 13:22 25,7 C 32,2 C 32,8 C 38 % 1017,6 hPa 0,0 l/m 2 min 0 min 844 W/m 12,9 km/h (3 Bft) 97,83 %
21.04.2019 13:20 25,6 C 32,2 C 32,8 C 37 % 1017,6 hPa 0,0 l/m 2 min 0 min 848 W/m 12,9 km/h (3 Bft) 95,83 %
21.04.2019 13:18 25,6 C 31,7 C 32,2 C 38 % 1017,6 hPa 0,0 l/m 2 min 0 min 844 W/m 12,9 km/h (3 Bft) 97,87 %
21.04.2019 13:16 25,7 C 31,1 C 31,1 C 36 % 1017,6 hPa 0,0 l/m 2 min 0 min 839 W/m 16,1 km/h (3 Bft) 100,00 %
21.04.2019 13:14 25,7 C 33,9 C 33,3 C 39 % 1017,7 hPa 0,0 l/m 2 min 0 min 837 W/m 6,4 km/h (2 Bft) 100,00 %
21.04.2019 13:12 25,6 C 32,8 C 33,3 C 39 % 1017,7 hPa 0,0 l/m 2 min 0 min 836 W/m 12,9 km/h (3 Bft) 100,00 %
21.04.2019 13:10 25,6 C 32,2 C 32,2 C 39 % 1017,7 hPa 0,0 l/m 2 min 0 min 835 W/m 9,7 km/h (2 Bft) 100,00 %
21.04.2019 13:08 25,6 C 32,2 C 32,2 C 38 % 1017,8 hPa 0,0 l/m 2 min 0 min 828 W/m 9,7 km/h (2 Bft) 97,87 %
21.04.2019 13:06 25,5 C 32,2 C 32,8 C 39 % 1017,8 hPa 0,0 l/m 2 min 0 min 836 W/m 12,9 km/h (3 Bft) 100,00 %
21.04.2019 13:04 25,4 C 32,2 C 32,2 C 39 % 1017,8 hPa 0,0 l/m 2 min 0 min 837 W/m 12,9 km/h (3 Bft) 95,74 %
21.04.2019 13:02 25,4 C 33,3 C 32,2 C 39 % 1017,8 hPa 0,0 l/m 2 min 0 min 838 W/m 9,7 km/h (2 Bft) 97,83 %
21.04.2019 13:00 25,3 C 32,8 C 31,7 C 40 % 1017,8 hPa 0,0 l/m 2 min 0 min 838 W/m 9,7 km/h (2 Bft) 97,87 %
21.04.2019 12:58 25,3 C 32,2 C 30,6 C 40 % 1017,9 hPa 0,0 l/m 2 min 0 min 841 W/m 12,9 km/h (3 Bft) 97,87 %
21.04.2019 12:56 25,2 C 31,7 C 31,7 C 40 % 1018,0 hPa 0,0 l/m 2 min 0 min 837 W/m 16,1 km/h (3 Bft) 97,87 %
21.04.2019 12:54 25,1 C 31,7 C 31,7 C 39 % 1018,0 hPa 0,0 l/m 2 min 0 min 838 W/m 9,7 km/h (2 Bft) 97,87 %
21.04.2019 12:52 25,1 C 32,8 C 32,2 C 40 % 1018,0 hPa 0,0 l/m 2 min 0 min 836 W/m 6,4 km/h (2 Bft) 97,87 %
21.04.2019 12:50 25,1 C 31,7 C 31,7 C 39 % 1018,1 hPa 0,0 l/m 2 min 0 min 833 W/m 9,7 km/h (2 Bft) 97,83 %
21.04.2019 12:48 25,0 C 31,7 C 31,7 C 38 % 1018,1 hPa 0,0 l/m 2 min 0 min 829 W/m 9,7 km/h (2 Bft) 95,74 %
21.04.2019 12:46 24,9 C 33,3 C 32,2 C 40 % 1018,1 hPa 0,0 l/m 2 min 0 min 825 W/m 9,7 km/h (2 Bft) 97,96 %
21.04.2019 12:44 24,8 C 33,3 C 32,2 C 41 % 1018,1 hPa 0,0 l/m 2 min 0 min 822 W/m 9,7 km/h (2 Bft) 97,87 %
21.04.2019 12:42 24,7 C 32,8 C 32,2 C 42 % 1018,1 hPa 0,0 l/m 2 min 0 min 821 W/m 6,4 km/h (2 Bft) 97,87 %
21.04.2019 12:40 24,6 C 32,2 C 32,8 C 42 % 1018,2 hPa 0,0 l/m 2 min 0 min 822 W/m 12,9 km/h (3 Bft) 97,83 %
21.04.2019 12:38 24,5 C 32,2 C 32,2 C 41 % 1018,2 hPa 0,0 l/m 2 min 0 min 819 W/m 9,7 km/h (2 Bft) 97,22 %
21.04.2019 12:36 24,4 C 32,2 C 32,2 C 43 % 1018,2 hPa 0,0 l/m 2 min 0 min 815 W/m 6,4 km/h (2 Bft) 98,28 %
21.04.2019 12:34 24,3 C 31,7 C 31,7 C 41 % 1018,2 hPa 0,0 l/m 2 min 0 min 818 W/m 9,7 km/h (2 Bft) 97,62 %
21.04.2019 12:32 24,3 C 30,6 C 30,6 C 40 % 1018,2 hPa 0,0 l/m 2 min 0 min 816 W/m 9,7 km/h (2 Bft) 97,87 %
21.04.2019 12:30 24,2 C 30,6 C 30,6 C 41 % 1018,3 hPa 0,0 l/m 2 min 0 min 812 W/m 12,9 km/h (3 Bft) 91,49 %
21.04.2019 12:28 24,2 C 29,4 C 29,4 C 40 % 1018,3 hPa 0,0 l/m 2 min 0 min 810 W/m 9,7 km/h (2 Bft) 97,87 %
21.04.2019 12:26 24,2 C 29,4 C 28,3 C 40 % 1018,4 hPa 0,0 l/m 2 min 0 min 810 W/m 12,9 km/h (3 Bft) 97,87 %
21.04.2019 12:24 24,2 C 29,4 C 28,3 C 40 % 1018,4 hPa 0,0 l/m 2 min 0 min 806 W/m 6,4 km/h (2 Bft) 97,83 %
21.04.2019 12:22 24,2 C 29,4 C 30,0 C 39 % 1018,4 hPa 0,0 l/m 2 min 0 min 805 W/m 9,7 km/h (2 Bft) 95,74 %
21.04.2019 12:20 24,2 C 30,6 C 30,6 C 40 % 1018,5 hPa 0,0 l/m 2 min 0 min 802 W/m 9,7 km/h (2 Bft) 95,74 %
21.04.2019 12:18 24,2 C 30,6 C 30,6 C 40 % 1018,5 hPa 0,0 l/m 2 min 0 min 800 W/m 12,9 km/h (3 Bft) 95,74 %
21.04.2019 12:16 24,1 C 31,7 C 30,6 C 41 % 1018,6 hPa 0,0 l/m 2 min 0 min 798 W/m 9,7 km/h (2 Bft) 95,74 %
21.04.2019 12:14 24,0 C 31,1 C 29,4 C 41 % 1018,6 hPa 0,0 l/m 2 min 0 min 796 W/m 9,7 km/h (2 Bft) 95,74 %
21.04.2019 12:12 23,9 C 31,1 C 27,8 C 41 % 1018,7 hPa 0,0 l/m 2 min 0 min 795 W/m 9,7 km/h (2 Bft) 93,48 %
21.04.2019 12:10 23,8 C 32,2 C 26,7 C 43 % 1018,7 hPa 0,0 l/m 2 min 0 min 789 W/m 12,9 km/h (3 Bft) 95,74 %
21.04.2019 12:08 23,7 C 31,1 C 25,0 C 41 % 1018,8 hPa 0,0 l/m 4 min 0 min 787 W/m 9,7 km/h (2 Bft) 95,74 %
21.04.2019 12:04 23,5 C 31,1 C 25,0 C 41 % 1018,7 hPa 0,0 l/m 2 min 0 min 782 W/m 6,4 km/h (2 Bft) 95,74 %
21.04.2019 12:02 23,4 C 31,7 C 25,6 C 43 % 1018,8 hPa 0,0 l/m 2 min 0 min 777 W/m 9,7 km/h (2 Bft) 97,87 %
21.04.2019 12:00 23,3 C 30,6 C 26,1 C 44 % 1018,8 hPa 0,0 l/m 2 min 0 min 774 W/m 9,7 km/h (2 Bft) 97,83 %
21.04.2019 11:58 23,2 C 29,4 C 26,7 C 42 % 1018,7 hPa 0,0 l/m 2 min 0 min 773 W/m 9,7 km/h (2 Bft) 89,36 %
21.04.2019 11:56 23,1 C 30,6 C 26,1 C 43 % 1018,7 hPa 0,0 l/m 2 min 0 min 772 W/m 6,4 km/h (2 Bft) 87,23 %
21.04.2019 11:54 23,0 C 29,4 C 25,6 C 43 % 1018,8 hPa 0,0 l/m 2 min 0 min 767 W/m 6,4 km/h (2 Bft) 97,87 %
21.04.2019 11:52 23,0 C 28,3 C 25,0 C 42 % 1018,9 hPa 0,0 l/m 2 min 0 min 766 W/m 6,4 km/h (2 Bft) 93,62 %
21.04.2019 11:50 23,0 C 27,8 C 26,7 C 42 % 1019,0 hPa 0,0 l/m 2 min 0 min 763 W/m 9,7 km/h (2 Bft) 89,13 %
21.04.2019 11:48 22,9 C 29,4 C 28,3 C 42 % 1019,0 hPa 0,0 l/m 2 min 0 min 759 W/m 6,4 km/h (2 Bft) 95,74 %
21.04.2019 11:46 22,9 C 29,4 C 29,4 C 43 % 1019,0 hPa 0,0 l/m 2 min 0 min 754 W/m 6,4 km/h (2 Bft) 95,74 %
21.04.2019 11:44 22,8 C 28,3 C 28,9 C 44 % 1019,0 hPa 0,0 l/m 2 min 0 min 752 W/m 16,1 km/h (3 Bft) 93,62 %
21.04.2019 11:42 22,8 C 28,9 C 28,9 C 44 % 1019,1 hPa 0,0 l/m 2 min 0 min 749 W/m 9,7 km/h (2 Bft) 93,62 %
21.04.2019 11:40 22,7 C 29,4 C 28,9 C 44 % 1019,1 hPa 0,0 l/m 2 min 0 min 745 W/m 12,9 km/h (3 Bft) 95,74 %
21.04.2019 11:38 22,6 C 28,9 C 28,9 C 44 % 1019,1 hPa 0,0 l/m 2 min 0 min 744 W/m 9,7 km/h (2 Bft) 97,14 %
21.04.2019 11:36 22,6 C 29,4 C 29,4 C 44 % 1019,1 hPa 0,0 l/m 2 min 0 min 740 W/m 12,9 km/h (3 Bft) 98,28 %
21.04.2019 11:34 22,4 C 30,0 C 28,9 C 45 % 1019,1 hPa 0,0 l/m 2 min 0 min 737 W/m 6,4 km/h (2 Bft) 97,87 %
21.04.2019 11:32 22,3 C 28,9 C 28,9 C 46 % 1019,1 hPa 0,0 l/m 2 min 0 min 731 W/m 6,4 km/h (2 Bft) 100,00 %
21.04.2019 11:30 22,2 C 28,3 C 28,3 C 44 % 1019,2 hPa 0,0 l/m 2 min 0 min 728 W/m 6,4 km/h (2 Bft) 100,00 %
21.04.2019 11:28 22,2 C 28,3 C 28,3 C 44 % 1019,2 hPa 0,0 l/m 2 min 0 min 724 W/m 9,7 km/h (2 Bft) 97,87 %
21.04.2019 11:26 22,1 C 28,9 C 28,3 C 45 % 1019,2 hPa 0,0 l/m 2 min 0 min 721 W/m 6,4 km/h (2 Bft) 100,00 %
21.04.2019 11:24 22,0 C 28,9 C 28,9 C 45 % 1019,1 hPa 0,0 l/m 2 min 0 min 716 W/m 9,7 km/h (2 Bft) 97,87 %
21.04.2019 11:22 21,9 C 28,9 C 28,9 C 46 % 1019,1 hPa 0,0 l/m 2 min 0 min 711 W/m 9,7 km/h (2 Bft) 100,00 %
21.04.2019 11:20 21,8 C 28,3 C 28,3 C 46 % 1019,1 hPa 0,0 l/m 2 min 0 min 706 W/m 6,4 km/h (2 Bft) 100,00 %
21.04.2019 11:18 21,7 C 27,2 C 27,8 C 45 % 1019,1 hPa 0,0 l/m 2 min 0 min 703 W/m 6,4 km/h (2 Bft) 100,00 %
21.04.2019 11:16 21,7 C 27,2 C 27,2 C 46 % 1019,1 hPa 0,0 l/m 2 min 0 min 698 W/m 9,7 km/h (2 Bft) 100,00 %
21.04.2019 11:14 21,6 C 27,2 C 27,2 C 45 % 1019,1 hPa 0,0 l/m 2 min 0 min 693 W/m 6,4 km/h (2 Bft) 97,83 %
21.04.2019 11:12 21,6 C 27,2 C 27,8 C 46 % 1019,2 hPa 0,0 l/m 2 min 0 min 686 W/m 6,4 km/h (2 Bft) 100,00 %
21.04.2019 11:10 21,5 C 26,7 C 27,8 C 46 % 1019,2 hPa 0,0 l/m 2 min 0 min 683 W/m 6,4 km/h (2 Bft) 100,00 %
21.04.2019 11:08 21,5 C 26,7 C 27,2 C 47 % 1019,2 hPa 0,0 l/m 2 min 0 min 678 W/m 9,7 km/h (2 Bft) 100,00 %
21.04.2019 11:06 21,4 C 27,2 C 27,8 C 47 % 1019,3 hPa 0,0 l/m 2 min 0 min 673 W/m 9,7 km/h (2 Bft) 100,00 %
21.04.2019 11:04 21,4 C 28,9 C 28,9 C 48 % 1019,3 hPa 0,0 l/m 2 min 0 min 667 W/m 6,4 km/h (2 Bft) 98,28 %
21.04.2019 11:02 21,3 C 28,9 C 28,3 C 48 % 1019,3 hPa 0,0 l/m 2 min 0 min 662 W/m 6,4 km/h (2 Bft) 100,00 %
21.04.2019 11:00 21,2 C 29,4 C 28,9 C 50 % 1019,4 hPa 0,0 l/m 2 min 0 min 659 W/m 6,4 km/h (2 Bft) 97,87 %
21.04.2019 10:58 21,0 C 28,9 C 28,9 C 50 % 1019,3 hPa 0,0 l/m 2 min 0 min 653 W/m 9,7 km/h (2 Bft) 100,00 %
21.04.2019 10:56 20,9 C 28,3 C 28,9 C 50 % 1019,4 hPa 0,0 l/m 2 min 0 min 648 W/m 6,4 km/h (2 Bft) 97,83 %
21.04.2019 10:54 20,7 C 28,3 C 28,3 C 51 % 1019,4 hPa 0,0 l/m 2 min 0 min 642 W/m 9,7 km/h (2 Bft) 95,74 %
21.04.2019 10:52 20,6 C 27,2 C 27,8 C 51 % 1019,4 hPa 0,0 l/m 2 min 0 min 637 W/m 6,4 km/h (2 Bft) 97,87 %
21.04.2019 10:50 20,5 C 26,7 C 27,2 C 49 % 1019,4 hPa 0,0 l/m 2 min 0 min 632 W/m 6,4 km/h (2 Bft) 97,87 %
21.04.2019 10:48 20,4 C 25,6 C 26,7 C 49 % 1019,4 hPa 0,0 l/m 2 min 0 min 628 W/m 9,7 km/h (2 Bft) 97,87 %
21.04.2019 10:46 20,3 C 26,1 C 27,2 C 49 % 1019,4 hPa 0,0 l/m 2 min 0 min 622 W/m 6,4 km/h (2 Bft) 97,87 %
21.04.2019 10:44 20,2 C 25,0 C 26,7 C 49 % 1019,5 hPa 0,0 l/m 2 min 0 min 617 W/m 9,7 km/h (2 Bft) 97,14 %
21.04.2019 10:42 20,2 C 25,0 C 26,1 C 50 % 1019,5 hPa 0,0 l/m 2 min 0 min 612 W/m 9,7 km/h (2 Bft) 98,28 %
21.04.2019 10:40 20,1 C 25,6 C 26,1 C 51 % 1019,5 hPa 0,0 l/m 2 min 0 min 607 W/m 9,7 km/h (2 Bft) 96,77 %
21.04.2019 10:38 20,0 C 26,1 C 26,7 C 51 % 1019,6 hPa 0,0 l/m 2 min 0 min 602 W/m 6,4 km/h (2 Bft) 97,87 %
21.04.2019 10:36 19,9 C 26,7 C 26,7 C 51 % 1019,6 hPa 0,0 l/m 2 min 0 min 594 W/m 6,4 km/h (2 Bft) 97,83 %
21.04.2019 10:34 19,8 C 26,7 C 26,7 C 53 % 1019,6 hPa 0,0 l/m 2 min 0 min 590 W/m 6,4 km/h (2 Bft) 97,87 %
21.04.2019 10:32 19,7 C 26,1 C 26,1 C 52 % 1019,7 hPa 0,0 l/m 2 min 0 min 583 W/m 9,7 km/h (2 Bft) 98,31 %
21.04.2019 10:30 19,6 C 25,6 C 26,1 C 52 % 1019,7 hPa 0,0 l/m 2 min 0 min 579 W/m 6,4 km/h (2 Bft) 97,87 %
21.04.2019 10:28 19,4 C 26,1 C 26,1 C 54 % 1019,7 hPa 0,0 l/m 2 min 0 min 574 W/m 6,4 km/h (2 Bft) 97,83 %
21.04.2019 10:26 19,3 C 25,6 C 25,6 C 53 % 1019,7 hPa 0,0 l/m 2 min 0 min 561 W/m 6,4 km/h (2 Bft) 97,87 %
21.04.2019 10:24 19,2 C 23,3 C 24,4 C 50 % 1019,7 hPa 0,0 l/m 2 min 0 min 538 W/m 9,7 km/h (2 Bft) 97,87 %
21.04.2019 10:22 19,2 C 23,9 C 23,9 C 50 % 1019,8 hPa 0,0 l/m 2 min 0 min 503 W/m 9,7 km/h (2 Bft) 97,87 %
21.04.2019 10:20 19,2 C 24,4 C 25,0 C 50 % 1019,7 hPa 0,0 l/m 2 min 0 min 460 W/m 6,4 km/h (2 Bft) 97,87 %
21.04.2019 10:18 19,1 C 25,0 C 25,0 C 52 % 1019,7 hPa 0,0 l/m 2 min 0 min 409 W/m 9,7 km/h (2 Bft) 97,14 %
21.04.2019 10:16 19,0 C 24,4 C 25,0 C 51 % 1019,8 hPa 0,0 l/m 2 min 0 min 349 W/m 9,7 km/h (2 Bft) 98,28 %
21.04.2019 10:14 18,9 C 25,6 C 26,1 C 53 % 1019,8 hPa 0,0 l/m 2 min 0 min 288 W/m 6,4 km/h (2 Bft) 95,74 %
21.04.2019 10:12 18,8 C 23,9 C 25,6 C 52 % 1019,9 hPa 0,0 l/m 0 min 0 min 231 W/m 6,4 km/h (2 Bft) 97,87 %
21.04.2019 10:10 18,7 C 23,9 C 25,0 C 52 % 1019,9 hPa 0,0 l/m 0 min 0 min 179 W/m 6,4 km/h (2 Bft) 100,00 %
21.04.2019 10:08 18,6 C 23,9 C 25,0 C 52 % 1019,9 hPa 0,0 l/m 0 min 0 min 139 W/m 9,7 km/h (2 Bft) 97,87 %
21.04.2019 10:06 18,4 C 23,9 C 25,0 C 53 % 1019,9 hPa 0,0 l/m 0 min 0 min 109 W/m 9,7 km/h (2 Bft) 94,00 %
21.04.2019 10:04 18,3 C 23,3 C 23,9 C 52 % 1019,8 hPa 0,0 l/m 0 min 0 min 89 W/m 12,9 km/h (3 Bft) 97,83 %
21.04.2019 10:02 18,2 C 24,4 C 24,4 C 55 % 1019,9 hPa 0,0 l/m 0 min 0 min 78 W/m 6,4 km/h (2 Bft) 100,00 %
21.04.2019 10:00 18,1 C 23,9 C 23,9 C 55 % 1019,9 hPa 0,0 l/m 0 min 0 min 76 W/m 6,4 km/h (2 Bft) 100,00 %
21.04.2019 09:58 17,9 C 23,9 C 23,9 C 56 % 1019,9 hPa 0,0 l/m 0 min 0 min 74 W/m 6,4 km/h (2 Bft) 97,87 %
21.04.2019 09:56 17,8 C 24,4 C 24,4 C 57 % 1019,9 hPa 0,0 l/m 0 min 0 min 74 W/m 6,4 km/h (2 Bft) 100,00 %
21.04.2019 09:54 17,6 C 25,0 C 24,4 C 60 % 1019,9 hPa 0,0 l/m 0 min 0 min 73 W/m 6,4 km/h (2 Bft) 100,00 %
21.04.2019 09:52 17,4 C 25,0 C 24,4 C 59 % 1020,0 hPa 0,0 l/m 0 min 0 min 72 W/m 9,7 km/h (2 Bft) 100,00 %
21.04.2019 09:50 17,2 C 24,4 C 24,4 C 60 % 1019,9 hPa 0,0 l/m 0 min 0 min 72 W/m 6,4 km/h (2 Bft) 95,74 %
21.04.2019 09:48 17,0 C 23,9 C 23,9 C 61 % 1020,0 hPa 0,0 l/m 0 min 0 min 72 W/m 3,2 km/h (1 Bft) 97,87 %
21.04.2019 09:46 16,8 C 23,3 C 23,3 C 60 % 1020,0 hPa 0,0 l/m 0 min 0 min 70 W/m 6,4 km/h (2 Bft) 97,87 %
21.04.2019 09:44 16,6 C 23,9 C 23,3 C 62 % 1020,0 hPa 0,0 l/m 0 min 0 min 70 W/m 3,2 km/h (1 Bft) 97,87 %
21.04.2019 09:42 16,4 C 23,3 C 23,3 C 62 % 1020,0 hPa 0,0 l/m 0 min 0 min 70 W/m 6,4 km/h (2 Bft) 97,96 %
21.04.2019 09:40 16,2 C 24,4 C 23,3 C 63 % 1020,0 hPa 0,0 l/m 0 min 0 min 69 W/m 6,4 km/h (2 Bft) 97,92 %
21.04.2019 09:38 15,9 C 23,9 C 22,8 C 63 % 1020,0 hPa 0,0 l/m 0 min 0 min 69 W/m 6,4 km/h (2 Bft) 97,87 %
21.04.2019 09:36 15,7 C 23,3 C 22,8 C 63 % 1020,0 hPa 0,0 l/m 0 min 0 min 69 W/m 9,7 km/h (2 Bft) 97,87 %
21.04.2019 09:34 15,5 C 22,8 C 22,2 C 64 % 1020,1 hPa 0,0 l/m 0 min 0 min 69 W/m 9,7 km/h (2 Bft) 95,74 %
21.04.2019 09:32 15,2 C 23,3 C 22,2 C 66 % 1020,0 hPa 0,0 l/m 0 min 0 min 69 W/m 6,4 km/h (2 Bft) 95,74 %
21.04.2019 09:30 14,9 C 23,3 C 21,7 C 67 % 1020,1 hPa 0,0 l/m 0 min 0 min 67 W/m 6,4 km/h (2 Bft) 97,83 %
21.04.2019 09:28 14,7 C 23,3 C 21,1 C 68 % 1020,1 hPa 0,0 l/m 0 min 0 min 67 W/m 6,4 km/h (2 Bft) 97,62 %
21.04.2019 09:26 14,4 C 22,8 C 21,1 C 69 % 1020,0 hPa 0,0 l/m 0 min 0 min 67 W/m 6,4 km/h (2 Bft) 95,65 %
21.04.2019 09:24 14,2 C 22,8 C 21,1 C 70 % 1020,1 hPa 0,0 l/m 0 min 0 min 67 W/m 3,2 km/h (1 Bft) 97,87 %
21.04.2019 09:22 13,9 C 22,8 C 20,6 C 70 % 1020,0 hPa 0,0 l/m 0 min 0 min 65 W/m 6,4 km/h (2 Bft) 97,87 %
21.04.2019 09:20 13,6 C 22,2 C 19,4 C 70 % 1020,1 hPa 0,0 l/m 0 min 0 min 65 W/m 6,4 km/h (2 Bft) 97,87 %
21.04.2019 09:18 13,3 C 22,2 C 18,3 C 71 % 1020,0 hPa 0,0 l/m 0 min 0 min 65 W/m 6,4 km/h (2 Bft) 97,87 %
21.04.2019 09:16 13,1 C 21,7 C 17,2 C 72 % 1020,1 hPa 0,0 l/m 0 min 0 min 65 W/m 3,2 km/h (1 Bft) 97,87 %
21.04.2019 09:14 12,8 C 21,7 C 15,6 C 73 % 1020,1 hPa 0,0 l/m 0 min 0 min 63 W/m 6,4 km/h (2 Bft) 97,83 %
21.04.2019 09:12 12,5 C 21,7 C 13,9 C 73 % 1020,1 hPa 0,0 l/m 0 min 0 min 63 W/m 3,2 km/h (1 Bft) 100,00 %
21.04.2019 09:10 12,3 C 20,6 C 12,2 C 73 % 1020,1 hPa 0,0 l/m 0 min 0 min 63 W/m 3,2 km/h (1 Bft) 100,00 %
21.04.2019 09:08 12,1 C 20,6 C 12,2 C 73 % 1020,0 hPa 0,0 l/m 0 min 0 min 63 W/m 3,2 km/h (1 Bft) 100,00 %
21.04.2019 09:06 11,9 C 19,4 C 12,2 C 74 % 1020,1 hPa 0,0 l/m 0 min 0 min 62 W/m 6,4 km/h (2 Bft) 100,00 %
21.04.2019 09:04 11,6 C 19,4 C 11,7 C 74 % 1020,1 hPa 0,0 l/m 0 min 0 min 62 W/m 6,4 km/h (2 Bft) 100,00 %
21.04.2019 09:02 11,4 C 20,0 C 11,7 C 74 % 1020,1 hPa 0,0 l/m 0 min 0 min 67 W/m 6,4 km/h (2 Bft) 100,00 %
21.04.2019 09:00 11,2 C 20,0 C 11,1 C 74 % 1020,2 hPa 0,0 l/m 0 min 0 min 75 W/m 3,2 km/h (1 Bft) 100,00 %
21.04.2019 08:58 11,1 C 18,9 C 11,1 C 74 % 1020,2 hPa 0,0 l/m 0 min 0 min 88 W/m 6,4 km/h (2 Bft) 100,00 %
21.04.2019 08:56 10,9 C 19,4 C 10,6 C 74 % 1020,1 hPa 0,0 l/m 0 min 0 min 103 W/m 6,4 km/h (2 Bft) 97,87 %
21.04.2019 08:54 10,8 C 18,9 C 10,6 C 74 % 1020,2 hPa 0,0 l/m 0 min 0 min 122 W/m 0,0 km/h (0 Bft) 100,00 %
21.04.2019 08:52 10,7 C 17,8 C 10,6 C 74 % 1020,1 hPa 0,0 l/m 0 min 0 min 143 W/m 0,0 km/h (0 Bft) 100,00 %
21.04.2019 08:50 10,6 C 17,2 C 10,6 C 73 % 1020,1 hPa 0,0 l/m 0 min 0 min 164 W/m 0,0 km/h (0 Bft) 100,00 %
21.04.2019 08:48 10,4 C 15,6 C 10,0 C 73 % 1020,1 hPa 0,0 l/m 2 min 0 min 182 W/m 0,0 km/h (0 Bft) 100,00 %
21.04.2019 08:46 10,4 C 13,9 C 10,0 C 73 % 1020,1 hPa 0,0 l/m 0 min 0 min 111 W/m 3,2 km/h (1 Bft) 100,00 %
21.04.2019 08:44 10,3 C 12,2 C 10,0 C 73 % 1020,1 hPa 0,0 l/m 0 min 0 min 57 W/m 3,2 km/h (1 Bft) 100,00 %
21.04.2019 08:42 10,3 C 12,2 C 10,0 C 73 % 1020,1 hPa 0,0 l/m 0 min 0 min 56 W/m 3,2 km/h (1 Bft) 100,00 %
21.04.2019 08:40 10,2 C 11,7 C 10,0 C 73 % 1020,2 hPa 0,0 l/m 0 min 0 min 55 W/m 6,4 km/h (2 Bft) 100,00 %
21.04.2019 08:38 10,2 C 11,7 C 10,0 C 73 % 1020,1 hPa 0,0 l/m 0 min 0 min 54 W/m 6,4 km/h (2 Bft) 100,00 %
21.04.2019 08:36 10,1 C 11,7 C 9,4 C 73 % 1020,1 hPa 0,0 l/m 0 min 0 min 54 W/m 6,4 km/h (2 Bft) 100,00 %
21.04.2019 08:34 10,1 C 11,1 C 9,4 C 73 % 1020,1 hPa 0,0 l/m 0 min 0 min 53 W/m 3,2 km/h (1 Bft) 95,74 %
21.04.2019 08:32 10,0 C 11,1 C 9,4 C 73 % 1020,1 hPa 0,0 l/m 0 min 0 min 53 W/m 3,2 km/h (1 Bft) 97,83 %
21.04.2019 08:30 9,9 C 11,1 C 9,4 C 73 % 1020,1 hPa 0,0 l/m 0 min 0 min 53 W/m 3,2 km/h (1 Bft) 97,87 %
21.04.2019 08:28 9,9 C 11,1 C 9,4 C 73 % 1020,1 hPa 0,0 l/m 0 min 0 min 51 W/m 6,4 km/h (2 Bft) 95,74 %
21.04.2019 08:26 9,9 C 11,1 C 9,4 C 73 % 1020,1 hPa 0,0 l/m 0 min 0 min 51 W/m 6,4 km/h (2 Bft) 97,87 %
21.04.2019 08:24 9,8 C 10,6 C 9,4 C 73 % 1020,1 hPa 0,0 l/m 0 min 0 min 49 W/m 6,4 km/h (2 Bft) 97,87 %
21.04.2019 08:22 9,7 C 10,6 C 9,4 C 73 % 1020,1 hPa 0,0 l/m 0 min 0 min 49 W/m 3,2 km/h (1 Bft) 97,87 %
21.04.2019 08:20 9,7 C 10,6 C 9,4 C 73 % 1020,2 hPa 0,0 l/m 0 min 0 min 49 W/m 3,2 km/h (1 Bft) 97,87 %
21.04.2019 08:18 9,7 C 10,6 C 8,9 C 73 % 1020,3 hPa 0,0 l/m 0 min 0 min 47 W/m 6,4 km/h (2 Bft) 95,65 %
21.04.2019 08:16 9,6 C 10,6 C 8,9 C 73 % 1020,3 hPa 0,0 l/m 0 min 0 min 47 W/m 3,2 km/h (1 Bft) 97,87 %
21.04.2019 08:14 9,6 C 10,0 C 8,9 C 72 % 1020,3 hPa 0,0 l/m 0 min 0 min 47 W/m 6,4 km/h (2 Bft) 97,87 %
21.04.2019 08:12 9,5 C 10,0 C 8,9 C 72 % 1020,3 hPa 0,0 l/m 0 min 0 min 46 W/m 6,4 km/h (2 Bft) 95,74 %
21.04.2019 08:10 9,4 C 10,0 C 8,9 C 72 % 1020,3 hPa 0,0 l/m 0 min 0 min 46 W/m 6,4 km/h (2 Bft) 95,74 %
21.04.2019 08:08 9,4 C 10,0 C 8,9 C 72 % 1020,3 hPa 0,0 l/m 0 min 0 min 44 W/m 6,4 km/h (2 Bft) 95,83 %
21.04.2019 08:06 9,4 C 10,0 C 8,9 C 72 % 1020,3 hPa 0,0 l/m 0 min 0 min 44 W/m 6,4 km/h (2 Bft) 93,62 %
21.04.2019 08:04 9,3 C 10,0 C 8,9 C 72 % 1020,3 hPa 0,0 l/m 0 min 0 min 43 W/m 3,2 km/h (1 Bft) 95,74 %
21.04.2019 08:02 9,3 C 10,0 C 8,3 C 72 % 1020,3 hPa 0,0 l/m 0 min 0 min 42 W/m 6,4 km/h (2 Bft) 93,62 %
21.04.2019 08:00 9,3 C 10,0 C 8,3 C 72 % 1020,3 hPa 0,0 l/m 0 min 0 min 42 W/m 6,4 km/h (2 Bft) 93,62 %
21.04.2019 07:58 9,2 C 9,4 C 8,3 C 72 % 1020,4 hPa 0,0 l/m 0 min 0 min 40 W/m 6,4 km/h (2 Bft) 95,74 %
21.04.2019 07:56 9,2 C 9,4 C 8,3 C 72 % 1020,3 hPa 0,0 l/m 0 min 0 min 40 W/m 3,2 km/h (1 Bft) 95,65 %
21.04.2019 07:54 9,2 C 9,4 C 8,3 C 72 % 1020,3 hPa 0,0 l/m 0 min 0 min 40 W/m 3,2 km/h (1 Bft) 95,74 %
21.04.2019 07:52 9,1 C 9,4 C 8,3 C 71 % 1020,4 hPa 0,0 l/m 0 min 0 min 39 W/m 3,2 km/h (1 Bft) 97,87 %
21.04.2019 07:50 9,1 C 9,4 C 8,3 C 71 % 1020,4 hPa 0,0 l/m 0 min 0 min 39 W/m 6,4 km/h (2 Bft) 97,87 %
21.04.2019 07:48 9,1 C 9,4 C 8,3 C 71 % 1020,4 hPa 0,0 l/m 0 min 0 min 38 W/m 3,2 km/h (1 Bft) 93,62 %
21.04.2019 07:46 9,1 C 9,4 C 8,3 C 71 % 1020,4 hPa 0,0 l/m 0 min 0 min 37 W/m 6,4 km/h (2 Bft) 93,62 %
21.04.2019 07:44 9,1 C 9,4 C 7,8 C 71 % 1020,4 hPa 0,0 l/m 0 min 0 min 36 W/m 3,2 km/h (1 Bft) 95,65 %
21.04.2019 07:42 9,0 C 9,4 C 7,8 C 71 % 1020,4 hPa 0,0 l/m 0 min 0 min 35 W/m 3,2 km/h (1 Bft) 95,74 %
21.04.2019 07:40 9,0 C 8,9 C 7,8 C 71 % 1020,4 hPa 0,0 l/m 0 min 0 min 35 W/m 3,2 km/h (1 Bft) 93,88 %
21.04.2019 07:38 9,0 C 8,9 C 7,8 C 70 % 1020,5 hPa 0,0 l/m 0 min 0 min 33 W/m 3,2 km/h (1 Bft) 95,74 %
21.04.2019 07:36 8,9 C 8,9 C 7,8 C 70 % 1020,3 hPa 0,0 l/m 0 min 0 min 33 W/m 3,2 km/h (1 Bft) 97,87 %
21.04.2019 07:34 8,9 C 8,9 C 7,8 C 70 % 1020,4 hPa 0,0 l/m 0 min 0 min 33 W/m 3,2 km/h (1 Bft) 95,65 %
21.04.2019 07:32 8,9 C 8,9 C 7,8 C 70 % 1020,3 hPa 0,0 l/m 0 min 0 min 36 W/m 3,2 km/h (1 Bft) 95,74 %
21.04.2019 07:30 8,9 C 8,9 C 7,8 C 70 % 1020,4 hPa 0,0 l/m 0 min 0 min 39 W/m 6,4 km/h (2 Bft) 95,74 %
21.04.2019 07:28 8,9 C 8,9 C 7,8 C 70 % 1020,3 hPa 0,0 l/m 0 min 0 min 37 W/m 6,4 km/h (2 Bft) 93,62 %
21.04.2019 07:26 8,9 C 8,3 C 7,8 C 69 % 1020,4 hPa 0,0 l/m 0 min 0 min 31 W/m 6,4 km/h (2 Bft) 95,74 %
21.04.2019 07:24 8,9 C 8,3 C 7,8 C 69 % 1020,3 hPa 0,0 l/m 0 min 0 min 28 W/m 6,4 km/h (2 Bft) 95,74 %
21.04.2019 07:22 8,9 C 8,3 C 7,8 C 69 % 1020,3 hPa 0,0 l/m 0 min 0 min 27 W/m 3,2 km/h (1 Bft) 93,48 %
21.04.2019 07:20 8,9 C 8,3 C 7,2 C 69 % 1020,3 hPa 0,0 l/m 0 min 0 min 26 W/m 3,2 km/h (1 Bft) 95,74 %
21.04.2019 07:18 8,9 C 8,3 C 7,8 C 69 % 1020,4 hPa 0,0 l/m 0 min 0 min 26 W/m 3,2 km/h (1 Bft) 95,74 %
21.04.2019 07:16 8,9 C 8,3 C 7,2 C 69 % 1020,4 hPa 0,0 l/m 0 min 0 min 25 W/m 3,2 km/h (1 Bft) 93,62 %
21.04.2019 07:14 8,9 C 8,3 C 7,2 C 69 % 1020,3 hPa 0,0 l/m 0 min 0 min 25 W/m 3,2 km/h (1 Bft) 95,74 %
21.04.2019 07:12 8,9 C 8,3 C 7,2 C 69 % 1020,4 hPa 0,0 l/m 0 min 0 min 23 W/m 3,2 km/h (1 Bft) 95,74 %
21.04.2019 07:10 8,9 C 8,3 C 7,2 C 69 % 1020,3 hPa 0,0 l/m 0 min 0 min 22 W/m 6,4 km/h (2 Bft) 92,68 %
21.04.2019 07:08 8,9 C 8,3 C 7,2 C 68 % 1020,3 hPa 0,0 l/m 0 min 0 min 21 W/m 3,2 km/h (1 Bft) 97,87 %
21.04.2019 07:06 8,9 C 8,3 C 7,2 C 68 % 1020,3 hPa 0,0 l/m 0 min 0 min 20 W/m 3,2 km/h (1 Bft) 97,83 %
21.04.2019 07:04 9,0 C 8,3 C 7,2 C 68 % 1020,3 hPa 0,0 l/m 0 min 0 min 19 W/m 3,2 km/h (1 Bft) 95,74 %
21.04.2019 07:02 9,0 C 8,3 C 7,2 C 68 % 1020,4 hPa 0,0 l/m 0 min 0 min 19 W/m 3,2 km/h (1 Bft) 95,74 %
21.04.2019 07:00 9,0 C 8,3 C 7,2 C 68 % 1020,5 hPa 0,0 l/m 0 min 0 min 18 W/m 3,2 km/h (1 Bft) 95,74 %
21.04.2019 06:58 9,1 C 7,8 C 7,2 C 68 % 1020,4 hPa 0,0 l/m 0 min 0 min 17 W/m 3,2 km/h (1 Bft) 97,87 %
21.04.2019 06:56 9,1 C 7,8 C 7,2 C 67 % 1020,4 hPa 0,0 l/m 0 min 0 min 16 W/m 3,2 km/h (1 Bft) 95,74 %
21.04.2019 06:54 9,1 C 7,8 C 7,2 C 67 % 1020,4 hPa 0,0 l/m 0 min 0 min 15 W/m 6,4 km/h (2 Bft) 97,83 %
21.04.2019 06:52 9,2 C 7,8 C 7,2 C 67 % 1020,4 hPa 0,0 l/m 0 min 0 min 14 W/m 3,2 km/h (1 Bft) 97,87 %
21.04.2019 06:50 9,2 C 7,8 C 7,2 C 67 % 1020,5 hPa 0,0 l/m 0 min 0 min 13 W/m 3,2 km/h (1 Bft) 95,74 %
21.04.2019 06:48 9,2 C 7,8 C 7,2 C 67 % 1020,5 hPa 0,0 l/m 0 min 0 min 12 W/m 3,2 km/h (1 Bft) 97,87 %
21.04.2019 06:46 9,2 C 7,8 C 7,2 C 67 % 1020,5 hPa 0,0 l/m 0 min 0 min 11 W/m 3,2 km/h (1 Bft) 97,87 %
21.04.2019 06:44 9,3 C 7,8 C 7,2 C 67 % 1020,4 hPa 0,0 l/m 0 min 0 min 11 W/m 3,2 km/h (1 Bft) 97,87 %
21.04.2019 06:42 9,3 C 7,8 C 7,2 C 66 % 1020,4 hPa 0,0 l/m 0 min 0 min 9 W/m 6,4 km/h (2 Bft) 100,00 %
21.04.2019 06:40 9,3 C 7,8 C 7,2 C 66 % 1020,5 hPa 0,0 l/m 0 min 0 min 9 W/m 3,2 km/h (1 Bft) 100,00 %
21.04.2019 06:38 9,4 C 7,8 C 7,2 C 66 % 1020,5 hPa 0,0 l/m 0 min 0 min 7 W/m 3,2 km/h (1 Bft) 100,00 %
21.04.2019 06:36 9,4 C 7,8 C 7,2 C 66 % 1020,5 hPa 0,0 l/m 0 min 0 min 7 W/m 3,2 km/h (1 Bft) 100,00 %
21.04.2019 06:34 9,4 C 7,8 C 7,2 C 66 % 1020,5 hPa 0,0 l/m 0 min 0 min 6 W/m 3,2 km/h (1 Bft) 100,00 %
21.04.2019 06:32 9,5 C 7,8 C 7,2 C 66 % 1020,5 hPa 0,0 l/m 0 min 0 min 5 W/m 3,2 km/h (1 Bft) 100,00 %
21.04.2019 06:30 9,5 C 7,8 C 7,2 C 66 % 1020,5 hPa 0,0 l/m 0 min 0 min 3 W/m 3,2 km/h (1 Bft) 100,00 %
21.04.2019 06:28 9,5 C 7,8 C 7,2 C 66 % 1020,6 hPa 0,0 l/m 0 min 0 min 0 W/m 3,2 km/h (1 Bft) 100,00 %
21.04.2019 06:26 9,6 C 7,8 C 7,2 C 65 % 1020,6 hPa 0,0 l/m 0 min 0 min 0 W/m 3,2 km/h (1 Bft) 100,00 %
21.04.2019 06:24 9,6 C 7,8 C 7,2 C 65 % 1020,7 hPa 0,0 l/m 0 min 0 min 0 W/m 6,4 km/h (2 Bft) 100,00 %
21.04.2019 06:22 9,7 C 7,8 C 7,2 C 65 % 1020,6 hPa 0,0 l/m 0 min 0 min 0 W/m 3,2 km/h (1 Bft) 97,87 %
21.04.2019 06:20 9,7 C 7,8 C 7,2 C 65 % 1020,5 hPa 0,0 l/m 0 min 0 min 0 W/m 6,4 km/h (2 Bft) 95,65 %
21.04.2019 06:18 9,7 C 7,8 C 7,2 C 65 % 1020,7 hPa 0,0 l/m 0 min 0 min 0 W/m 3,2 km/h (1 Bft) 97,87 %
21.04.2019 06:16 9,8 C 7,8 C 7,2 C 65 % 1020,7 hPa 0,0 l/m 0 min 0 min 0 W/m 3,2 km/h (1 Bft) 95,74 %
21.04.2019 06:14 9,8 C 7,8 C 7,2 C 65 % 1020,7 hPa 0,0 l/m 0 min 0 min 0 W/m 6,4 km/h (2 Bft) 95,74 %
21.04.2019 06:12 9,8 C 8,3 C 7,2 C 65 % 1020,7 hPa 0,0 l/m 0 min 0 min 0 W/m 3,2 km/h (1 Bft) 97,87 %
21.04.2019 06:10 9,9 C 8,3 C 7,2 C 65 % 1020,7 hPa 0,0 l/m 0 min 0 min 0 W/m 6,4 km/h (2 Bft) 97,92 %
21.04.2019 06:08 9,9 C 8,3 C 7,2 C 65 % 1020,7 hPa 0,0 l/m 0 min 0 min 0 W/m 6,4 km/h (2 Bft) 97,94 %
21.04.2019 06:04 9,9 C 8,3 C 7,8 C 65 % 1020,8 hPa 0,0 l/m 0 min 0 min 0 W/m 3,2 km/h (1 Bft) 97,87 %
21.04.2019 06:02 10,0 C 8,3 C 7,2 C 64 % 1020,8 hPa 0,0 l/m 0 min 0 min 0 W/m 0,0 km/h (0 Bft) 97,87 %
21.04.2019 06:00 10,0 C 8,3 C 7,8 C 64 % 1020,8 hPa 0,0 l/m 0 min 0 min 0 W/m 0,0 km/h (0 Bft) 97,83 %
21.04.2019 05:58 10,1 C 8,3 C 7,8 C 64 % 1020,8 hPa 0,0 l/m 0 min 0 min 0 W/m 0,0 km/h (0 Bft) 93,62 %
21.04.2019 05:56 10,1 C 8,3 C 7,8 C 64 % 1020,8 hPa 0,0 l/m 0 min 0 min 0 W/m 6,4 km/h (2 Bft) 95,74 %
21.04.2019 05:54 10,1 C 8,3 C 7,8 C 64 % 1020,8 hPa 0,0 l/m 0 min 0 min 0 W/m 3,2 km/h (1 Bft) 97,87 %
21.04.2019 05:52 10,1 C 8,9 C 7,8 C 64 % 1020,8 hPa 0,0 l/m 0 min 0 min 0 W/m 0,0 km/h (0 Bft) 97,87 %
21.04.2019 05:50 10,2 C 8,9 C 7,8 C 64 % 1020,8 hPa 0,0 l/m 0 min 0 min 0 W/m 3,2 km/h (1 Bft) 100,00 %
21.04.2019 05:48 10,2 C 8,9 C 7,8 C 63 % 1020,7 hPa 0,0 l/m 0 min 0 min 0 W/m 3,2 km/h (1 Bft) 97,83 %
21.04.2019 05:46 10,2 C 8,9 C 7,8 C 63 % 1020,7 hPa 0,0 l/m 0 min 0 min 0 W/m 6,4 km/h (2 Bft) 100,00 %
21.04.2019 05:44 10,2 C 8,9 C 7,8 C 63 % 1020,8 hPa 0,0 l/m 0 min 0 min 0 W/m 3,2 km/h (1 Bft) 93,62 %
21.04.2019 05:42 10,2 C 8,9 C 7,8 C 63 % 1020,8 hPa 0,0 l/m 0 min 0 min 0 W/m 6,4 km/h (2 Bft) 100,00 %
21.04.2019 05:40 10,3 C 8,9 C 7,8 C 63 % 1020,7 hPa 0,0 l/m 0 min 0 min 0 W/m 3,2 km/h (1 Bft) 100,00 %
21.04.2019 05:38 10,3 C 8,9 C 7,8 C 63 % 1020,7 hPa 0,0 l/m 0 min 0 min 0 W/m 0,0 km/h (0 Bft) 97,87 %
21.04.2019 05:36 10,3 C 8,9 C 7,8 C 63 % 1020,8 hPa 0,0 l/m 0 min 0 min 0 W/m 0,0 km/h (0 Bft) 100,00 %
21.04.2019 05:34 10,3 C 8,9 C 8,3 C 63 % 1020,8 hPa 0,0 l/m 0 min 0 min 0 W/m 0,0 km/h (0 Bft) 100,00 %
21.04.2019 05:32 10,4 C 8,9 C 8,3 C 63 % 1020,8 hPa 0,0 l/m 0 min 0 min 0 W/m 3,2 km/h (1 Bft) 97,83 %
21.04.2019 05:30 10,4 C 8,9 C 8,3 C 63 % 1020,8 hPa 0,0 l/m 0 min 0 min 0 W/m 6,4 km/h (2 Bft) 100,00 %
21.04.2019 05:28 10,4 C 8,9 C 8,3 C 63 % 1020,9 hPa 0,0 l/m 0 min 0 min 0 W/m 9,7 km/h (2 Bft) 100,00 %
21.04.2019 05:26 10,4 C 8,9 C 8,3 C 63 % 1020,9 hPa 0,0 l/m 0 min 0 min 0 W/m 3,2 km/h (1 Bft) 97,87 %
21.04.2019 05:24 10,4 C 9,4 C 8,3 C 63 % 1020,9 hPa 0,0 l/m 0 min 0 min 0 W/m 3,2 km/h (1 Bft) 100,00 %
21.04.2019 05:22 10,5 C 9,4 C 8,3 C 63 % 1021,0 hPa 0,0 l/m 0 min 0 min 0 W/m 6,4 km/h (2 Bft) 100,00 %
21.04.2019 05:20 10,5 C 9,4 C 8,3 C 63 % 1021,0 hPa 0,0 l/m 0 min 0 min 0 W/m 3,2 km/h (1 Bft) 100,00 %
21.04.2019 05:18 10,5 C 9,4 C 8,3 C 63 % 1021,1 hPa 0,0 l/m 0 min 0 min 0 W/m 3,2 km/h (1 Bft) 97,96 %
21.04.2019 05:16 10,6 C 9,4 C 8,3 C 63 % 1021,1 hPa 0,0 l/m 0 min 0 min 0 W/m 6,4 km/h (2 Bft) 100,00 %
21.04.2019 05:14 10,6 C 9,4 C 8,3 C 63 % 1021,1 hPa 0,0 l/m 0 min 0 min 0 W/m 6,4 km/h (2 Bft) 100,00 %
21.04.2019 05:12 10,6 C 9,4 C 8,3 C 63 % 1021,2 hPa 0,0 l/m 0 min 0 min 0 W/m 3,2 km/h (1 Bft) 91,67 %
21.04.2019 05:10 10,6 C 9,4 C 8,3 C 62 % 1021,2 hPa 0,0 l/m 0 min 0 min 0 W/m 3,2 km/h (1 Bft) 100,00 %
21.04.2019 05:05 10,7 C 9,4 C 8,9 C 62 % 1021,3 hPa 0,0 l/m 0 min 0 min 0 W/m 6,4 km/h (2 Bft) 100,00 %
21.04.2019 05:04 10,7 C 9,4 C 8,9 C 62 % 1021,3 hPa 0,0 l/m 0 min 0 min 0 W/m 3,2 km/h (1 Bft) 100,00 %
21.04.2019 05:02 10,7 C 9,4 C 8,3 C 62 % 1021,4 hPa 0,0 l/m 0 min 0 min 0 W/m 3,2 km/h (1 Bft) 100,00 %
21.04.2019 05:00 10,7 C 9,4 C 8,3 C 62 % 1021,4 hPa 0,0 l/m 0 min 0 min 0 W/m 3,2 km/h (1 Bft) 100,00 %
_ Min-Zeit 07:06 06:14 04:24 15:14 04:20 - - - - 05:34 22:28
Minimum _ 8,9 C 7,8 C 6,7 C 30 % 1010,4 hPa - - - - 0,0 km/h (0 Bft) 81,25 %
_ Max-Zeit 15:52 13:14 13:46 08:52 05:00 05:00 12:08 05:00 13:42 13:56 05:00
Maximum _ 26,9 C 33,9 C 35,6 C 74 % 1021,4 hPa 0,0 l/m 4 min 0 min 857 W/m 25,7 km/h
N-NO (4 Bft)
100,00 %
Durchschnitt _ 17,6 C 18,6 C 17,0 C 52 % 1016,1 hPa #0,0 l/m #0 min. #0 min. 0 W/m 5,4 km/h (1 Bft) 97,74 %
© 2019 W. Hausmann